DW7984 Weather Reports


Display with metric or nautical units.
time (UTC)temp
F
wind
direction
speed
MPH
gust
MPH
rain 1hr
in
rain 24hr
in
rain mn
in
humidity
%
barometer
mb
20260901112534 83 201 5.0 15.0 0.00 0.00 0.00 61 1056.2
20260901112518 83 199 5.0 14.0 0.00 0.00 0.00 61 1056.1
20260901112417 83 197 5.0 13.0 0.00 0.00 0.00 61 1056.1
20260901112316 83 240 5.0 13.0 0.00 0.00 0.00 61 1056.1
20260901112306 83 265 5.0 13.0 0.00 0.00 0.00 61 1056.1
20260901112250 83 137 5.0 13.0 0.00 0.00 0.00 61 1056.2
20260901112014 83 183 5.0 13.0 0.00 0.00 0.00 61 1056.1
20260901111942 83 203 5.0 13.0 0.00 0.00 0.00 61 1056.3
20260901111933 83 237 5.0 13.0 0.00 0.00 0.00 61 1056.2
20260901111921 83 226 5.0 13.0 0.00 0.00 0.00 61 1056.2
20260901111909 83 214 5.0 13.0 0.00 0.00 0.00 61 1056.3
20260901111643 83 201 5.0 13.0 0.00 0.00 0.00 60 1056.3
20260901111411 83 201 5.0 13.0 0.00 0.00 0.00 59 1056.2
20260901111402 83 182 4.0 10.0 0.00 0.00 0.00 59 1056.2
20260901111350 83 165 4.0 10.0 0.00 0.00 0.00 58 1056.1
20260901111343 83 193 4.0 10.0 0.00 0.00 0.00 58 1056.1
20260901111338 83 194 4.0 10.0 0.00 0.00 0.00 58 1056.1
20260901110832 83 208 5.0 14.0 0.00 0.00 0.00 61 1056.1
20260901110532 83 239 5.0 14.0 0.00 0.00 0.00 61 1056.1
20260901110508 83 230 5.0 14.0 0.00 0.00 0.00 61 1056.1
20260901110407 83 224 5.0 14.0 0.00 0.00 0.00 61 1056.2
20260901110308 82 266 5.0 14.0 0.00 0.00 0.00 61 1056.2
20260901110207 82 237 6.0 14.0 0.00 0.00 0.00 62 1056.2
20260901110107 82 186 6.0 14.0 0.00 0.00 0.00 62 1056.2
20260901110031 82 214 6.0 14.0 0.00 0.00 0.00 62 1056.2
20260901110008 82 203 6.0 14.0 0.00 0.00 0.00 62 1056.2
20260901105943 82 182 6.0 14.0 0.00 0.00 0.00 62 1056.1
20260901105934 82 197 6.0 14.0 0.00 0.00 0.00 62 1056.1
20260901105608 82 212 6.0 14.0 0.00 0.00 0.00 62 1056.3
20260901105531 82 181 6.0 14.0 0.00 0.00 0.00 62 1056.3
20260901105505 82 209 6.0 14.0 0.00 0.00 0.00 62 1056.2
20260901105404 82 131 6.0 14.0 0.00 0.00 0.00 62 1056.3
20260901105338 82 177 5.0 14.0 0.00 0.00 0.00 62 1056.3
20260901105331 82 214 5.0 12.0 0.00 0.00 0.00 62 1056.3
20260901105032 82 212 5.0 12.0 0.00 0.00 0.00 62 1056.2
20260901105004 82 220 6.0 12.0 0.00 0.00 0.00 61 1056.2
20260901104933 82 217 6.0 12.0 0.00 0.00 0.00 61 1056.2
20260901104924 82 199 6.0 12.0 0.00 0.00 0.00 61 1056.2
20260901104602 82 149 6.0 12.0 0.00 0.00 0.00 61 1056.1
20260901104532 82 152 6.0 12.0 0.00 0.00 0.00 61 1056.1
20260901104505 82 143 6.0 12.0 0.00 0.00 0.00 60 1056.1
20260901104401 82 156 6.0 12.0 0.00 0.00 0.00 60 1056.2
20260901104316 82 129 6.0 12.0 0.00 0.00 0.00 60 1056.1
20260901104305 83 179 7.0 12.0 0.00 0.00 0.00 60 1056.2
20260901104253 83 245 7.0 12.0 0.00 0.00 0.00 60 1056.1
20260901104241 83 191 7.0 12.0 0.00 0.00 0.00 60 1056.1
20260901104228 83 224 6.0 12.0 0.00 0.00 0.00 60 1056.1
20260901103957 83 240 7.0 13.0 0.00 0.00 0.00 61 1056.1
20260901103947 83 216 7.0 13.0 0.00 0.00 0.00 60 1056.1
20260901103937 83 195 6.0 13.0 0.00 0.00 0.00 60 1056.1
20260901103356 83 235 7.0 13.0 0.00 0.00 0.00 60 1056.2
20260901103334 83 245 7.0 13.0 0.00 0.00 0.00 60 1056.3
20260901103324 83 201 6.0 13.0 0.00 0.00 0.00 60 1056.2
20260901103047 83 217 6.0 13.0 0.00 0.00 0.00 59 1056.2
20260901103037 83 210 6.0 13.0 0.00 0.00 0.00 59 1056.2
20260901103024 83 260 6.0 13.0 0.00 0.00 0.00 59 1056.3
20260901102655 83 237 5.0 12.0 0.00 0.00 0.00 59 1056.3
20260901102602 83 157 5.0 11.0 0.00 0.00 0.00 60 1056.3
20260901102554 83 181 5.0 11.0 0.00 0.00 0.00 60 1056.3
20260901102546 83 154 5.0 11.0 0.00 0.00 0.00 60 1056.2
20260901102538 83 235 5.0 11.0 0.00 0.00 0.00 60 1056.3
20260901102255 83 191 5.0 10.0 0.00 0.00 0.00 60 1056.2
20260901102243 83 239 4.0 10.0 0.00 0.00 0.00 60 1056.2
20260901102236 83 257 4.0 10.0 0.00 0.00 0.00 60 1056.2
20260901102224 83 218 4.0 10.0 0.00 0.00 0.00 61 1056.2
20260901101952 82 249 5.0 10.0 0.00 0.00 0.00 61 1056.2
20260901101721 82 216 5.0 10.0 0.00 0.00 0.00 60 1056.3
20260901101714 82 231 5.0 10.0 0.00 0.00 0.00 60 1056.3
20260901101349 82 235 5.0 10.0 0.00 0.00 0.00 60 1056.3
20260901101250 82 199 5.0 11.0 0.00 0.00 0.00 60 1056.2
20260901101141 82 172 5.0 11.0 0.00 0.00 0.00 60 1056.2
20260901101041 82 235 5.0 11.0 0.00 0.00 0.00 60 1056.2
20260901101030 82 234 5.0 11.0 0.00 0.00 0.00 60 1056.2
20260901100942 82 242 4.0 11.0 0.00 0.00 0.00 59 1056.2
20260901100846 82 135 4.0 11.0 0.00 0.00 0.00 60 1056.2
20260901100741 82 169 4.0 11.0 0.00 0.00 0.00 60 1056.3
20260901100642 82 237 5.0 11.0 0.00 0.00 0.00 60 1056.2
20260901100542 82 171 5.0 11.0 0.00 0.00 0.00 60 1056.3
20260901100529 82 194 5.0 11.0 0.00 0.00 0.00 60 1056.3
20260901100442 82 208 5.0 11.0 0.00 0.00 0.00 60 1056.2
20260901100341 82 214 4.0 11.0 0.00 0.00 0.00 60 1056.2
20260901100241 82 156 4.0 11.0 0.00 0.00 0.00 60 1056.2
20260901100142 82 132 4.0 11.0 0.00 0.00 0.00 60 1056.2
20260901100042 82 155 4.0 11.0 0.00 0.00 0.00 61 1056.2
20260901100030 82 156 4.0 11.0 0.00 0.00 0.00 61 1056.2
20260901095941 82 243 4.0 11.0 0.00 0.00 0.00 61 1056.3
20260901095842 82 244 4.0 11.0 0.00 0.00 0.00 61 1056.3
20260901095741 82 215 4.0 11.0 0.00 0.00 0.00 60 1056.3
20260901095642 82 218 4.0 11.0 0.00 0.00 0.00 61 1056.3
20260901095542 82 154 4.0 11.0 0.00 0.00 0.00 60 1056.3
20260901095530 82 175 4.0 11.0 0.00 0.00 0.00 61 1056.3
20260901095442 82 215 4.0 11.0 0.00 0.00 0.00 61 1056.3
20260901095429 82 115 4.0 11.0 0.00 0.00 0.00 61 1056.2
20260901095420 82 95 4.0 11.0 0.00 0.00 0.00 61 1056.2
20260901095407 82 195 4.0 11.0 0.00 0.00 0.00 61 1056.2
20260901095355 82 132 4.0 11.0 0.00 0.00 0.00 62 1056.2
20260901095349 82 175 4.0 11.0 0.00 0.00 0.00 62 1056.2
20260901095121 82 161 4.0 11.0 0.00 0.00 0.00 61 1056.2
20260901095111 82 108 4.0 11.0 0.00 0.00 0.00 60 1056.2
20260901094835 82 178 4.0 11.0 0.00 0.00 0.00 61 1056.3
20260901094609 83 241 4.0 11.0 0.00 0.00 0.00 61 1056.3
20260901094336 83 231 3.0 8.0 0.00 0.00 0.00 60 1056.3
20260901094329 83 164 3.0 8.0 0.00 0.00 0.00 60 1056.2
20260901094054 83 198 3.0 8.0 0.00 0.00 0.00 60 1056.3
20260901094046 83 123 2.0 8.0 0.00 0.00 0.00 60 1056.2
20260901094033 83 135 2.0 6.0 0.00 0.00 0.00 60 1056.2
20260901094022 83 136 2.0 6.0 0.00 0.00 0.00 60 1056.1
20260901093745 83 133 2.0 6.0 0.00 0.00 0.00 61 1056.2
20260901093501 83 147 2.0 6.0 0.00 0.00 0.00 61 1056.1
20260901093453 83 146 2.0 6.0 0.00 0.00 0.00 61 1056.1
20260901093441 83 211 2.0 9.0 0.00 0.00 0.00 61 1056.1
20260901093429 82 160 2.0 9.0 0.00 0.00 0.00 62 1056.1
20260901093418 82 125 3.0 9.0 0.00 0.00 0.00 61 1056.1
20260901092837 82 87 4.0 10.0 0.00 0.00 0.00 61 1056.1
20260901092737 82 100 4.0 10.0 0.00 0.00 0.00 61 1056.1
20260901092637 82 177 4.0 10.0 0.00 0.00 0.00 62 1056.1
20260901092539 82 183 4.0 10.0 0.00 0.00 0.00 62 1056.2
20260901092530 82 186 4.0 10.0 0.00 0.00 0.00 62 1056.2
20260901092437 82 202 4.0 10.0 0.00 0.00 0.00 62 1056.1
20260901092337 82 144 4.0 10.0 0.00 0.00 0.00 62 1056.1
20260901092238 82 226 4.0 10.0 0.00 0.00 0.00 62 1056.1
20260901092137 82 249 5.0 10.0 0.00 0.00 0.00 62 1056.0
20260901092037 82 234 5.0 10.0 0.00 0.00 0.00 62 1056.0
20260901092029 82 221 5.0 10.0 0.00 0.00 0.00 63 1056.0
20260901091959 82 235 4.0 10.0 0.00 0.00 0.00 62 1056.0
20260901091950 82 237 4.0 10.0 0.00 0.00 0.00 62 1056.0
20260901091937 82 266 4.0 10.0 0.00 0.00 0.00 62 1056.0
20260901091928 82 253 4.0 10.0 0.00 0.00 0.00 62 1056.0
20260901091703 82 236 4.0 10.0 0.00 0.00 0.00 62 1056.0
20260901091338 82 237 4.0 10.0 0.00 0.00 0.00 62 1056.0
20260901091319 82 201 4.0 10.0 0.00 0.00 0.00 62 1056.0
20260901091307 82 204 3.0 10.0 0.00 0.00 0.00 63 1056.0
20260901091029 82 178 3.0 8.0 0.00 0.00 0.00 62 1056.0
20260901090938 82 249 3.0 8.0 0.00 0.00 0.00 62 1056.0
20260901090837 82 249 3.0 8.0 0.00 0.00 0.00 62 1055.8
20260901090737 82 249 2.0 8.0 0.00 0.00 0.00 62 1055.8
20260901090638 82 215 2.0 8.0 0.00 0.00 0.00 62 1055.8
20260901090548 82 172 2.0 8.0 0.00 0.00 0.00 63 1055.8
20260901090544 82 171 2.0 8.0 0.00 0.00 0.00 63 1055.8
20260901090533 82 166 2.0 8.0 0.00 0.00 0.00 63 1055.7
20260901090524 82 133 3.0 7.0 0.00 0.00 0.00 62 1055.8
20260901090512 82 141 3.0 7.0 0.00 0.00 0.00 63 1055.7
20260901090237 82 152 3.0 7.0 0.00 0.00 0.00 62 1055.7
20260901090233 82 151 3.0 7.0 0.00 0.00 0.00 62 1055.7
20260901090220 81 150 3.0 7.0 0.00 0.00 0.00 63 1055.7
20260901085635 81 202 3.0 9.0 0.00 0.00 0.00 64 1055.7
20260901085529 81 203 3.0 9.0 0.00 0.00 0.00 63 1055.7
20260901085506 81 177 4.0 9.0 0.00 0.00 0.00 64 1055.7
20260901085458 81 183 3.0 9.0 0.00 0.00 0.00 64 1055.6
20260901085135 81 206 4.0 9.0 0.00 0.00 0.00 64 1055.6
20260901085035 81 204 4.0 9.0 0.00 0.00 0.00 64 1055.5
20260901085029 81 212 4.0 9.0 0.00 0.00 0.00 64 1055.5
20260901084935 81 148 4.0 9.0 0.00 0.00 0.00 64 1055.6
20260901084835 81 149 4.0 9.0 0.00 0.00 0.00 64 1055.5
20260901084736 81 117 3.0 9.0 0.00 0.00 0.00 64 1055.6
20260901084655 81 122 3.0 9.0 0.00 0.00 0.00 63 1055.5
20260901084645 81 102 3.0 9.0 0.00 0.00 0.00 63 1055.5
20260901084640 81 104 3.0 9.0 0.00 0.00 0.00 63 1055.5
20260901084625 81 116 2.0 9.0 0.00 0.00 0.00 63 1055.5
20260901084359 81 156 2.0 9.0 0.00 0.00 0.00 63 1055.5
20260901084034 81 115 2.0 5.0 0.00 0.00 0.00 63 1055.4
20260901084029 81 150 2.0 5.0 0.00 0.00 0.00 63 1055.4
20260901083932 81 112 2.0 4.0 0.00 0.00 0.00 62 1055.4
20260901083831 81 201 2.0 4.0 0.00 0.00 0.00 62 1055.5
20260901083729 81 201 2.0 5.0 0.00 0.00 0.00 63 1055.4
20260901083707 81 200 2.0 5.0 0.00 0.00 0.00 63 1055.4
20260901083654 80 201 2.0 5.0 0.00 0.00 0.00 63 1055.4
20260901083331 80 201 3.0 5.0 0.00 0.00 0.00 62 1055.4
20260901083309 80 200 3.0 5.0 0.00 0.00 0.00 63 1055.4
20260901083259 80 131 2.0 5.0 0.00 0.00 0.00 63 1055.4
20260901083029 81 131 2.0 5.0 0.00 0.00 0.00 63 1055.4
20260901082929 81 131 2.0 5.0 0.00 0.00 0.00 62 1055.4
20260901082830 81 131 2.0 5.0 0.00 0.00 0.00 61 1055.4
20260901082729 81 138 2.0 5.0 0.00 0.00 0.00 62 1055.4
20260901082710 81 140 2.0 5.0 0.00 0.00 0.00 61 1055.3
20260901082657 81 141 2.0 5.0 0.00 0.00 0.00 61 1055.3
20260901082327 81 157 1.0 5.0 0.00 0.00 0.00 62 1055.4
20260901082227 81 169 2.0 4.0 0.00 0.00 0.00 63 1055.4
20260901082203 81 169 2.0 4.0 0.00 0.00 0.00 63 1055.4
20260901082150 81 170 1.0 4.0 0.00 0.00 0.00 63 1055.4
20260901081823 80 170 1.0 4.0 0.00 0.00 0.00 63 1055.4
20260901081815 80 170 1.0 4.0 0.00 0.00 0.00 62 1055.4
20260901081805 80 137 1.0 4.0 0.00 0.00 0.00 63 1055.4
20260901081535 80 136 1.0 4.0 0.00 0.00 0.00 63 1055.3
20260901081525 80 135 1.0 4.0 0.00 0.00 0.00 63 1055.3
20260901081511 80 135 2.0 4.0 0.00 0.00 0.00 63 1055.3
20260901081244 80 135 2.0 5.0 0.00 0.00 0.00 63 1055.3
20260901081228 80 134 2.0 5.0 0.00 0.00 0.00 63 1055.3
20260901080905 80 133 2.0 5.0 0.00 0.00 0.00 63 1055.3
20260901080806 80 134 1.0 5.0 0.00 0.00 0.00 63 1055.3
20260901080745 80 134 1.0 5.0 0.00 0.00 0.00 63 1055.3
20260901080735 80 135 1.0 5.0 0.00 0.00 0.00 63 1055.2
20260901080507 81 134 1.0 5.0 0.00 0.00 0.00 62 1055.3
20260901080403 81 135 1.0 5.0 0.00 0.00 0.00 62 1055.3
20260901080324 81 134 1.0 5.0 0.00 0.00 0.00 62 1055.3
20260901080314 81 210 1.0 4.0 0.00 0.00 0.00 63 1055.3
20260901080259 81 227 1.0 4.0 0.00 0.00 0.00 62 1055.3
20260901080245 81 227 1.0 4.0 0.00 0.00 0.00 63 1055.3
20260901075703 81 227 1.0 4.0 0.00 0.00 0.00 64 1055.3
20260901075603 80 227 1.0 4.0 0.00 0.00 0.00 65 1055.3
20260901075506 80 306 1.0 3.0 0.00 0.00 0.00 65 1055.3
20260901075403 80 305 2.0 3.0 0.00 0.00 0.00 64 1055.3
20260901075307 80 305 2.0 3.0 0.00 0.00 0.00 64 1055.3
20260901075203 80 305 2.0 3.0 0.00 0.00 0.00 64 1055.3
20260901075104 80 305 2.0 3.0 0.00 0.00 0.00 65 1055.3
20260901075033 80 305 2.0 3.0 0.00 0.00 0.00 66 1055.3
20260901075021 80 305 2.0 3.0 0.00 0.00 0.00 67 1055.3
20260901075005 80 305 2.0 3.0 0.00 0.00 0.00 67 1055.3
20260901074736 80 305 1.0 3.0 0.00 0.00 0.00 67 1055.3
20260901074722 80 305 1.0 3.0 0.00 0.00 0.00 67 1055.3
20260901074404 79 308 1.0 3.0 0.00 0.00 0.00 67 1055.3
20260901074303 79 308 1.0 3.0 0.00 0.00 0.00 68 1055.3
20260901074249 79 308 1.0 3.0 0.00 0.00 0.00 68 1055.3
20260901074239 79 309 1.0 3.0 0.00 0.00 0.00 69 1055.3
20260901074006 79 310 1.0 3.0 0.00 0.00 0.00 69 1055.3
20260901073929 79 309 1.0 3.0 0.00 0.00 0.00 69 1055.3
20260901073918 79 309 0.0 3.0 0.00 0.00 0.00 70 1055.3
20260901073906 79 309 0.0 3.0 0.00 0.00 0.00 70 1055.3
20260901073635 78 310 0.0 2.0 0.00 0.00 0.00 70 1055.3
20260901073628 78 310 0.0 2.0 0.00 0.00 0.00 70 1055.3
20260901073302 78 310 1.0 3.0 0.00 0.00 0.00 71 1055.3
20260901073236 78 311 1.0 3.0 0.00 0.00 0.00 71 1055.2
20260901073221 78 310 1.0 3.0 0.00 0.00 0.00 72 1055.3
20260901072953 78 310 1.0 3.0 0.00 0.00 0.00 73 1055.3
20260901072854 77 310 1.0 3.0 0.00 0.00 0.00 72 1055.2
20260901072754 77 311 1.0 3.0 0.00 0.00 0.00 72 1055.3
20260901072653 77 311 1.0 4.0 0.00 0.00 0.00 72 1055.3
20260901072553 77 311 1.0 4.0 0.00 0.00 0.00 72 1055.3
20260901072506 77 311 1.0 4.0 0.00 0.00 0.00 73 1055.3
20260901072448 77 311 1.0 4.0 0.00 0.00 0.00 73 1055.3
20260901072348 77 311 1.0 4.0 0.00 0.00 0.00 73 1055.3
20260901072333 76 311 1.0 4.0 0.00 0.00 0.00 73 1055.3
20260901072325 76 311 1.0 4.0 0.00 0.00 0.00 74 1055.3
20260901072308 76 311 1.0 4.0 0.00 0.00 0.00 75 1055.3
20260901072031 76 312 1.0 4.0 0.00 0.00 0.00 75 1055.3
20260901072019 76 311 1.0 4.0 0.00 0.00 0.00 75 1055.3
20260901071504 75 310 1.0 4.0 0.00 0.00 0.00 75 1055.3
20260901071440 75 310 1.0 4.0 0.00 0.00 0.00 76 1055.3
20260901071340 75 269 0.0 2.0 0.00 0.00 0.00 76 1055.3
20260901071238 75 268 1.0 3.0 0.00 0.00 0.00 77 1055.3
20260901071222 75 268 1.0 3.0 0.00 0.00 0.00 77 1055.3
20260901071209 75 268 1.0 3.0 0.00 0.00 0.00 78 1055.3
20260901071159 74 268 1.0 3.0 0.00 0.00 0.00 78 1055.3
20260901070834 74 268 1.0 3.0 0.00 0.00 0.00 78 1055.3
20260901070731 74 268 1.0 3.0 0.00 0.00 0.00 78 1055.3
20260901070633 74 268 1.0 3.0 0.00 0.00 0.00 79 1055.3
20260901070611 74 268 1.0 3.0 0.00 0.00 0.00 79 1055.3
20260901070603 74 268 2.0 3.0 0.00 0.00 0.00 79 1055.3
20260901070556 74 268 2.0 3.0 0.00 0.00 0.00 79 1055.3
20260901070544 74 268 2.0 3.0 0.00 0.00 0.00 80 1055.3
20260901070518 73 268 2.0 3.0 0.00 0.00 0.00 80 1055.3
20260901070006 73 268 2.0 3.0 0.00 0.00 0.00 81 1055.3
20260901065928 73 268 2.0 3.0 0.00 0.00 0.00 81 1055.3
20260901065826 73 268 2.0 3.0 0.00 0.00 0.00 82 1055.3
20260901065800 72 268 2.0 3.0 0.00 0.00 0.00 82 1055.3
20260901065751 72 268 2.0 3.0 0.00 0.00 0.00 82 1055.3
20260901065507 72 268 2.0 3.0 0.00 0.00 0.00 83 1055.3
20260901065459 72 268 2.0 3.0 0.00 0.00 0.00 83 1055.3
20260901065451 72 268 2.0 3.0 0.00 0.00 0.00 83 1055.3
20260901065122 71 268 2.0 3.0 0.00 0.00 0.00 84 1055.3
20260901065004 71 268 2.0 3.0 0.00 0.00 0.00 84 1055.3
20260901064920 71 268 2.0 3.0 0.00 0.00 0.00 84 1055.3
20260901064819 71 268 2.0 3.0 0.00 0.00 0.00 84 1055.3
20260901064716 71 268 2.0 3.0 0.00 0.00 0.00 85 1055.3
20260901064651 71 268 2.0 3.0 0.00 0.00 0.00 85 1055.3
20260901064636 71 268 2.0 3.0 0.00 0.00 0.00 85 1055.3
20260901064312 70 268 2.0 3.0 0.00 0.00 0.00 86 1055.3
20260901064242 70 268 2.0 3.0 0.00 0.00 0.00 86 1055.4
20260901064232 70 268 2.0 3.0 0.00 0.00 0.00 86 1055.4
20260901064218 70 268 2.0 3.0 0.00 0.00 0.00 86 1055.4
20260901063906 70 268 2.0 4.0 0.00 0.00 0.00 87 1055.4
20260901063805 70 268 2.0 4.0 0.00 0.00 0.00 87 1055.4
20260901063704 69 268 2.0 4.0 0.00 0.00 0.00 87 1055.4
20260901063604 69 268 2.0 4.0 0.00 0.00 0.00 87 1055.4
20260901063508 69 268 2.0 4.0 0.00 0.00 0.00 87 1055.4
20260901063403 69 268 2.0 4.0 0.00 0.00 0.00 88 1055.4
20260901063305 69 268 3.0 4.0 0.00 0.00 0.00 88 1055.5
20260901063229 69 268 3.0 4.0 0.00 0.00 0.00 88 1055.5
20260901063218 69 268 3.0 4.0 0.00 0.00 0.00 88 1055.5
20260901063204 69 268 3.0 4.0 0.00 0.00 0.00 88 1055.5
20260901063146 69 268 3.0 4.0 0.00 0.00 0.00 88 1055.5
20260901062603 68 268 2.0 4.0 0.00 0.00 0.00 89 1055.5
20260901062509 68 268 2.0 4.0 0.00 0.00 0.00 89 1055.5
20260901062403 68 268 2.0 4.0 0.00 0.00 0.00 89 1055.5
20260901062310 68 268 2.0 4.0 0.00 0.00 0.00 89 1055.5
20260901062203 68 268 2.0 4.0 0.00 0.00 0.00 89 1055.6
20260901062103 68 268 2.0 4.0 0.00 0.00 0.00 89 1055.6
20260901062007 67 268 2.0 4.0 0.00 0.00 0.00 90 1055.5
20260901061905 67 268 2.0 4.0 0.00 0.00 0.00 90 1055.5
20260901061805 67 268 2.0 4.0 0.00 0.00 0.00 90 1055.5
20260901061703 67 268 2.0 4.0 0.00 0.00 0.00 90 1055.5
20260901061603 67 268 2.0 4.0 0.00 0.00 0.00 90 1055.5
20260901061507 67 268 2.0 4.0 0.00 0.00 0.00 90 1055.5
20260901061435 67 268 2.0 4.0 0.00 0.00 0.00 90 1055.5
20260901061427 67 268 3.0 4.0 0.00 0.00 0.00 90 1055.4
20260901061150 67 268 3.0 4.0 0.00 0.00 0.00 90 1055.5
20260901061137 67 267 3.0 4.0 0.00 0.00 0.00 90 1055.4
20260901060804 66 267 3.0 4.0 0.00 0.00 0.00 90 1055.4
20260901060743 66 267 3.0 4.0 0.00 0.00 0.00 90 1055.4
20260901060731 66 267 3.0 4.0 0.00 0.00 0.00 90 1055.5
20260901060507 66 268 3.0 4.0 0.00 0.00 0.00 90 1055.4
20260901060403 66 268 3.0 4.0 0.00 0.00 0.00 90 1055.3
20260901060303 66 267 2.0 4.0 0.00 0.00 0.00 90 1055.3
20260901060204 66 267 2.0 4.0 0.00 0.00 0.00 90 1055.4
20260901060104 66 267 2.0 4.0 0.00 0.00 0.00 90 1055.4
20260901060015 66 268 2.0 4.0 0.00 0.00 0.00 90 1055.4
20260901055904 66 267 2.0 4.0 0.00 0.00 0.00 90 1055.4
20260901055803 66 267 2.0 4.0 0.00 0.00 0.00 90 1055.4
20260901055703 66 268 2.0 4.0 0.00 0.00 0.00 90 1055.4
20260901055604 65 268 2.0 4.0 0.00 0.00 0.00 90 1055.4
20260901055535 65 267 2.0 4.0 0.00 0.00 0.00 90 1055.3
20260901055524 65 267 2.0 4.0 0.00 0.00 0.00 90 1055.4
20260901055204 65 267 2.0 4.0 0.00 0.00 0.00 90 1055.4
20260901055147 65 267 3.0 4.0 0.00 0.00 0.00 90 1055.4
20260901055134 65 267 3.0 4.0 0.00 0.00 0.00 90 1055.4
20260901054844 65 267 3.0 4.0 0.00 0.00 0.00 90 1055.4
20260901054835 65 267 3.0 4.0 0.00 0.00 0.00 90 1055.4
20260901054822 65 268 3.0 4.0 0.00 0.00 0.00 90 1055.4
20260901054810 65 268 2.0 4.0 0.00 0.00 0.00 90 1055.4
20260901054536 65 267 2.0 4.0 0.00 0.00 0.00 90 1055.3
20260901054303 65 267 2.0 4.0 0.00 0.00 0.00 90 1055.3
20260901054040 65 266 2.0 4.0 0.00 0.00 0.00 90 1055.3
20260901054031 65 266 2.0 4.0 0.00 0.00 0.00 90 1055.3
20260901053704 65 266 2.0 3.0 0.00 0.00 0.00 90 1055.3
20260901053603 65 266 2.0 3.0 0.00 0.00 0.00 90 1055.3
20260901053507 65 266 2.0 3.0 0.00 0.00 0.00 90 1055.2
20260901053404 65 266 2.0 3.0 0.00 0.00 0.00 90 1055.3
20260901053304 65 266 2.0 3.0 0.00 0.00 0.00 90 1055.3
20260901053203 65 266 2.0 3.0 0.00 0.00 0.00 90 1055.3
20260901053103 65 266 2.0 3.0 0.00 0.00 0.00 90 1055.4
20260901053006 65 264 2.0 3.0 0.00 0.00 0.00 90 1055.3
20260901052903 65 265 2.0 3.0 0.00 0.00 0.00 90 1055.3
20260901052803 65 265 2.0 3.0 0.00 0.00 0.00 90 1055.3
20260901052712 65 265 2.0 3.0 0.00 0.00 0.00 90 1055.2
20260901052700 66 265 2.0 3.0 0.00 0.00 0.00 90 1055.2
20260901052649 66 265 2.0 3.0 0.00 0.00 0.00 90 1055.2
20260901052639 66 265 2.0 3.0 0.00 0.00 0.00 90 1055.2
20260901052631 66 264 2.0 3.0 0.00 0.00 0.00 90 1055.3
20260901052618 66 265 2.0 4.0 0.00 0.00 0.00 90 1055.3
20260901052132 66 265 2.0 4.0 0.00 0.00 0.00 90 1055.3
20260901051803 66 265 2.0 4.0 0.00 0.00 0.00 90 1055.3
20260901051704 66 265 2.0 4.0 0.00 0.00 0.00 90 1055.3
20260901051604 66 265 2.0 4.0 0.00 0.00 0.00 90 1055.3
20260901051539 66 265 2.0 4.0 0.00 0.00 0.00 90 1055.3
20260901051528 66 265 2.0 4.0 0.00 0.00 0.00 90 1055.3
20260901051254 66 266 3.0 4.0 0.00 0.00 0.00 90 1055.3
20260901051236 66 265 3.0 4.0 0.00 0.00 0.00 90 1055.3
20260901051218 66 265 3.0 4.0 0.00 0.00 0.00 90 1055.2
20260901051207 66 264 3.0 4.0 0.00 0.00 0.00 90 1055.3
20260901050938 66 264 3.0 4.0 0.00 0.00 0.00 90 1055.2
20260901050927 66 264 3.0 4.0 0.00 0.00 0.00 90 1055.2
20260901050915 66 264 2.0 4.0 0.00 0.00 0.00 90 1055.2
20260901050428 66 264 2.0 3.0 0.00 0.00 0.00 90 1055.2
20260901050138 66 264 2.0 3.0 0.00 0.00 0.00 91 1055.2
20260901050126 66 264 2.0 3.0 0.00 0.00 0.00 91 1055.2
20260901045803 66 264 2.0 3.0 0.00 0.00 0.00 91 1055.2
20260901045703 66 263 2.0 3.0 0.00 0.00 0.00 91 1055.2
20260901045604 66 264 2.0 3.0 0.00 0.00 0.00 91 1055.2
20260901045506 66 264 2.0 3.0 0.00 0.00 0.00 90 1055.3
20260901045403 67 264 2.0 3.0 0.00 0.00 0.00 90 1055.3
20260901045306 67 264 2.0 3.0 0.00 0.00 0.00 90 1055.3
20260901045204 67 264 2.0 3.0 0.00 0.00 0.00 90 1055.3
20260901045103 67 264 2.0 3.0 0.00 0.00 0.00 90 1055.3
20260901045006 67 263 2.0 3.0 0.00 0.00 0.00 90 1055.3
20260901044939 67 264 2.0 3.0 0.00 0.00 0.00 90 1055.4
20260901044931 67 264 2.0 3.0 0.00 0.00 0.00 90 1055.3
20260901044604 67 264 2.0 3.0 0.00 0.00 0.00 90 1055.4
20260901044508 67 264 2.0 3.0 0.00 0.00 0.00 90 1055.4
20260901044403 67 264 2.0 3.0 0.00 0.00 0.00 90 1055.3
20260901044304 67 264 2.0 3.0 0.00 0.00 0.00 91 1055.3
20260901044203 67 264 2.0 3.0 0.00 0.00 0.00 91 1055.3
20260901044104 67 264 2.0 3.0 0.00 0.00 0.00 91 1055.3
20260901044006 67 264 2.0 3.0 0.00 0.00 0.00 91 1055.3
20260901043904 67 264 2.0 3.0 0.00 0.00 0.00 91 1055.3
20260901043804 67 264 2.0 3.0 0.00 0.00 0.00 91 1055.3
20260901043704 67 263 2.0 3.0 0.00 0.00 0.00 91 1055.3
20260901043645 67 264 2.0 3.0 0.00 0.00 0.00 91 1055.3
20260901043633 67 264 2.0 3.0 0.00 0.00 0.00 91 1055.3
20260901043335 67 264 2.0 3.0 0.00 0.00 0.00 90 1055.3
20260901043326 67 264 2.0 3.0 0.00 0.00 0.00 90 1055.3
20260901043011 67 264 2.0 3.0 0.00 0.00 0.00 90 1055.3
20260901042959 67 263 2.0 3.0 0.00 0.00 0.00 90 1055.3
20260901042854 67 264 2.0 3.0 0.00 0.00 0.00 90 1055.3
20260901042753 67 264 2.0 3.0 0.00 0.00 0.00 90 1055.3
20260901042653 67 264 2.0 3.0 0.00 0.00 0.00 90 1055.3
20260901042553 67 264 2.0 3.0 0.00 0.00 0.00 90 1055.3
20260901042507 67 263 2.0 3.0 0.00 0.00 0.00 90 1055.3
20260901042453 67 264 2.0 3.0 0.00 0.00 0.00 90 1055.3
20260901042349 67 264 2.0 3.0 0.00 0.00 0.00 90 1055.3
20260901042249 67 263 2.0 3.0 0.00 0.00 0.00 90 1055.3
20260901042150 67 263 2.0 3.0 0.00 0.00 0.00 90 1055.3
20260901042050 67 264 2.0 3.0 0.00 0.00 0.00 91 1055.3
20260901042004 67 264 2.0 3.0 0.00 0.00 0.00 91 1055.4
20260901041947 67 264 2.0 3.0 0.00 0.00 0.00 91 1055.4
20260901041845 67 263 2.0 3.0 0.00 0.00 0.00 90 1055.4
20260901041746 67 263 2.0 3.0 0.00 0.00 0.00 90 1055.4
20260901041737 67 263 2.0 3.0 0.00 0.00 0.00 90 1055.4
20260901041722 67 264 2.0 3.0 0.00 0.00 0.00 90 1055.4
20260901041443 67 264 2.0 3.0 0.00 0.00 0.00 90 1055.4
20260901041344 68 264 2.0 3.0 0.00 0.00 0.00 90 1055.4
20260901041317 68 264 2.0 3.0 0.00 0.00 0.00 90 1055.4
20260901041308 68 264 2.0 3.0 0.00 0.00 0.00 90 1055.4
20260901041004 68 264 2.0 3.0 0.00 0.00 0.00 90 1055.4
20260901040941 68 264 2.0 3.0 0.00 0.00 0.00 90 1055.4
20260901040933 68 264 2.0 3.0 0.00 0.00 0.00 90 1055.4
20260901040925 68 264 2.0 3.0 0.00 0.00 0.00 90 1055.4
20260901040911 68 264 2.0 3.0 0.00 0.00 0.00 90 1055.4
20260901040642 68 264 2.0 3.0 0.00 0.00 0.00 90 1055.4
20260901040627 68 264 2.0 3.0 0.00 0.00 0.00 90 1055.4
20260901040401 68 264 2.0 3.0 0.00 0.00 0.00 90 1055.4
20260901040033 68 263 2.0 3.0 0.00 0.00 0.00 90 1055.4
20260901040004 68 264 2.0 3.0 0.00 0.00 0.00 90 1055.4
20260901035933 68 264 2.0 3.0 0.00 0.00 0.00 90 1055.4
20260901035834 68 263 2.0 3.0 0.00 0.00 0.00 90 1055.4
20260901035733 68 264 2.0 3.0 0.00 0.00 0.00 90 1055.4
20260901035632 68 263 2.0 3.0 0.00 0.00 0.00 90 1055.4
20260901035511 68 264 2.0 3.0 0.00 0.00 0.00 90 1055.4
20260901035503 68 263 2.0 3.0 0.00 0.00 0.00 90 1055.4
20260901035454 68 264 2.0 3.0 0.00 0.00 0.00 90 1055.5
20260901035132 68 264 2.0 3.0 0.00 0.00 0.00 90 1055.4
20260901035031 68 263 2.0 3.0 0.00 0.00 0.00 90 1055.4
20260901035003 68 264 2.0 3.0 0.00 0.00 0.00 90 1055.5
20260901034932 68 263 2.0 3.0 0.00 0.00 0.00 90 1055.5
20260901034833 68 263 2.0 3.0 0.00 0.00 0.00 90 1055.4
20260901034822 69 264 2.0 3.0 0.00 0.00 0.00 90 1055.4
20260901034812 69 264 2.0 3.0 0.00 0.00 0.00 90 1055.4
20260901034542 69 263 2.0 3.0 0.00 0.00 0.00 90 1055.4
20260901034534 69 264 2.0 3.0 0.00 0.00 0.00 90 1055.4
20260901034521 69 264 2.0 3.0 0.00 0.00 0.00 90 1055.5
20260901034511 69 263 2.0 3.0 0.00 0.00 0.00 90 1055.4
20260901034003 69 264 2.0 3.0 0.00 0.00 0.00 90 1055.4
20260901033931 69 264 2.0 3.0 0.00 0.00 0.00 90 1055.4
20260901033832 69 264 2.0 3.0 0.00 0.00 0.00 90 1055.5
20260901033807 69 264 2.0 3.0 0.00 0.00 0.00 90 1055.5
20260901033758 69 263 2.0 3.0 0.00 0.00 0.00 90 1055.5
20260901033507 69 264 2.0 3.0 0.00 0.00 0.00 90 1055.4
20260901033431 69 264 2.0 3.0 0.00 0.00 0.00 90 1055.4
20260901033332 69 264 2.0 3.0 0.00 0.00 0.00 90 1055.5
20260901033229 69 263 2.0 3.0 0.00 0.00 0.00 90 1055.4
20260901033208 69 263 2.0 3.0 0.00 0.00 0.00 90 1055.5
20260901033151 69 264 2.0 3.0 0.00 0.00 0.00 90 1055.5
20260901033139 69 264 2.0 3.0 0.00 0.00 0.00 90 1055.5
20260901033129 69 264 2.0 3.0 0.00 0.00 0.00 90 1055.5
20260901033121 69 264 2.0 3.0 0.00 0.00 0.00 90 1055.5
20260901033110 69 263 2.0 3.0 0.00 0.00 0.00 90 1055.5
20260901032841 69 263 2.0 3.0 0.00 0.00 0.00 90 1055.5
20260901032609 69 263 2.0 3.0 0.00 0.00 0.00 90 1055.5
20260901032028 69 264 2.0 3.0 0.00 0.00 0.00 90 1055.5
20260901031957 69 264 2.0 3.0 0.00 0.00 0.00 90 1055.5
20260901031948 69 263 2.0 3.0 0.00 0.00 0.00 90 1055.5
20260901031940 69 264 2.0 3.0 0.00 0.00 0.00 90 1055.5
20260901031929 69 264 2.0 3.0 0.00 0.00 0.00 90 1055.5
20260901031918 69 264 2.0 3.0 0.00 0.00 0.00 90 1055.6
20260901031652 69 263 2.0 3.0 0.00 0.00 0.00 90 1055.6
20260901031329 69 263 2.0 3.0 0.00 0.00 0.00 90 1055.6
20260901031234 69 263 2.0 3.0 0.00 0.00 0.00 90 1055.6
20260901031223 69 264 2.0 3.0 0.00 0.00 0.00 89 1055.6
20260901031209 69 264 2.0 3.0 0.00 0.00 0.00 89 1055.5
20260901030928 69 180 2.0 3.0 0.00 0.00 0.00 89 1055.6
20260901030829 69 180 2.0 3.0 0.00 0.00 0.00 89 1055.6
20260901030811 69 179 2.0 3.0 0.00 0.00 0.00 89 1055.6
20260901030757 69 179 2.0 3.0 0.00 0.00 0.00 89 1055.6
20260901030743 69 180 2.0 3.0 0.00 0.00 0.00 89 1055.6
20260901030517 69 179 2.0 3.0 0.00 0.00 0.00 89 1055.6
20260901030509 69 179 2.0 3.0 0.00 0.00 0.00 89 1055.6
20260901030501 69 179 2.0 3.0 0.00 0.00 0.00 89 1055.6
20260901030450 69 179 2.0 3.0 0.00 0.00 0.00 89 1055.6
20260901030211 69 179 2.0 3.0 0.00 0.00 0.00 89 1055.6
20260901030204 69 179 2.0 3.0 0.00 0.00 0.00 89 1055.6
20260901025933 69 173 1.0 4.0 0.00 0.00 0.00 89 1055.6
20260901025705 70 171 1.0 4.0 0.00 0.00 0.00 89 1055.5
20260901025436 70 171 1.0 4.0 0.00 0.00 0.00 89 1055.5
20260901025111 70 172 1.0 4.0 0.00 0.00 0.00 89 1055.6
20260901025011 70 171 1.0 4.0 0.00 0.00 0.00 89 1055.6
20260901024954 70 171 1.0 4.0 0.00 0.00 0.00 89 1055.6
20260901024911 70 170 1.0 4.0 0.00 0.00 0.00 89 1055.6
20260901024809 70 170 1.0 4.0 0.00 0.00 0.00 89 1055.6
20260901024709 70 170 1.0 4.0 0.00 0.00 0.00 89 1055.6
20260901024609 70 169 1.0 4.0 0.00 0.00 0.00 89 1055.6
20260901024508 70 169 1.0 4.0 0.00 0.00 0.00 89 1055.7
20260901024451 70 170 1.0 4.0 0.00 0.00 0.00 89 1055.7
20260901024409 70 170 1.0 4.0 0.00 0.00 0.00 89 1055.7
20260901024309 70 170 2.0 4.0 0.00 0.00 0.00 89 1055.7
20260901024209 70 169 2.0 4.0 0.00 0.00 0.00 89 1055.7
20260901024109 70 170 2.0 4.0 0.00 0.00 0.00 89 1055.7
20260901024009 70 170 2.0 4.0 0.00 0.00 0.00 89 1055.7
20260901023952 70 169 2.0 4.0 0.00 0.00 0.00 89 1055.7
20260901023945 70 170 2.0 4.0 0.00 0.00 0.00 89 1055.7
20260901023935 70 169 2.0 4.0 0.00 0.00 0.00 89 1055.7
20260901023609 70 169 1.0 4.0 0.00 0.00 0.00 89 1055.8
20260901023514 70 169 1.0 4.0 0.00 0.00 0.00 89 1055.7
20260901023506 70 169 1.0 4.0 0.00 0.00 0.00 89 1055.7
20260901023456 70 168 1.0 4.0 0.00 0.00 0.00 89 1055.8
20260901023448 70 168 1.0 4.0 0.00 0.00 0.00 89 1055.8
20260901023438 70 168 1.0 4.0 0.00 0.00 0.00 88 1055.8
20260901023430 70 168 1.0 2.0 0.00 0.00 0.00 88 1055.8
20260901023200 70 168 1.0 2.0 0.00 0.00 0.00 88 1055.8
20260901022933 70 168 2.0 4.0 0.00 0.00 0.00 89 1056.0
20260901022919 70 168 2.0 4.0 0.00 0.00 0.00 88 1056.0
20260901022911 70 168 2.0 4.0 0.00 0.00 0.00 88 1056.0
20260901022900 70 168 2.0 4.0 0.00 0.00 0.00 88 1056.0
20260901022631 70 168 2.0 4.0 0.00 0.00 0.00 88 1056.0
20260901022622 70 168 2.0 4.0 0.00 0.00 0.00 88 1056.0
20260901022344 71 168 2.0 4.0 0.00 0.00 0.00 88 1056.0
20260901022332 71 167 2.0 4.0 0.00 0.00 0.00 88 1056.0
20260901022327 71 168 2.0 4.0 0.00 0.00 0.00 88 1056.0
20260901022100 71 166 2.0 4.0 0.00 0.00 0.00 88 1056.0
20260901022051 71 166 2.0 4.0 0.00 0.00 0.00 88 1056.0
20260901022039 71 166 2.0 3.0 0.00 0.00 0.00 88 1056.0
20260901022025 71 166 2.0 3.0 0.00 0.00 0.00 88 1056.1
20260901022020 71 167 2.0 3.0 0.00 0.00 0.00 88 1056.1
20260901022010 71 166 2.0 3.0 0.00 0.00 0.00 88 1056.1
20260901021512 71 166 2.0 3.0 0.00 0.00 0.00 88 1056.1
20260901021029 71 166 2.0 3.0 0.00 0.00 0.00 88 1056.1
20260901020702 71 166 2.0 3.0 0.00 0.00 0.00 88 1056.1
20260901020602 71 168 2.0 3.0 0.00 0.00 0.00 88 1056.1
20260901020501 71 166 2.0 3.0 0.00 0.00 0.00 88 1056.1
20260901020446 71 166 2.0 3.0 0.00 0.00 0.00 88 1056.1
20260901020402 71 166 2.0 3.0 0.00 0.00 0.00 88 1056.1
20260901020332 71 166 2.0 3.0 0.00 0.00 0.00 87 1056.1
20260901020323 71 166 1.0 3.0 0.00 0.00 0.00 87 1056.1
20260901020002 71 166 1.0 3.0 0.00 0.00 0.00 87 1056.2
20260901015945 71 166 1.0 3.0 0.00 0.00 0.00 87 1056.2
20260901015902 71 166 1.0 3.0 0.00 0.00 0.00 87 1056.2
20260901015802 71 166 1.0 3.0 0.00 0.00 0.00 87 1056.2
20260901015702 71 167 1.0 3.0 0.00 0.00 0.00 87 1056.2
20260901015600 71 166 0.0 3.0 0.00 0.00 0.00 87 1056.2
20260901015451 71 166 0.0 3.0 0.00 0.00 0.00 87 1056.2
20260901015353 72 167 0.0 3.0 0.00 0.00 0.00 87 1056.2
20260901015253 72 166 0.0 0.0 0.00 0.00 0.00 88 1056.2
20260901015223 72 166 0.0 0.0 0.00 0.00 0.00 88 1056.2
20260901015215 72 166 0.0 0.0 0.00 0.00 0.00 88 1056.2
20260901015154 72 166 0.0 0.0 0.00 0.00 0.00 88 1056.2
20260901014921 72 167 0.0 0.0 0.00 0.00 0.00 88 1056.2
20260901014633 72 166 0.0 0.0 0.00 0.00 0.00 88 1056.2
20260901014617 72 166 0.0 1.0 0.00 0.00 0.00 88 1056.2
20260901014246 72 166 0.0 3.0 0.00 0.00 0.00 88 1056.3
20260901014224 72 166 0.0 3.0 0.00 0.00 0.00 88 1056.3
20260901014215 72 166 1.0 3.0 0.00 0.00 0.00 88 1056.3
20260901013943 72 166 1.0 3.0 0.00 0.00 0.00 88 1056.3
20260901013845 72 166 1.0 3.0 0.00 0.00 0.00 88 1056.4
20260901013746 72 166 1.0 3.0 0.00 0.00 0.00 88 1056.3
20260901013645 72 166 1.0 3.0 0.00 0.00 0.00 88 1056.3
20260901013546 72 166 1.0 3.0 0.00 0.00 0.00 88 1056.4
20260901013511 72 166 1.0 3.0 0.00 0.00 0.00 88 1056.4
20260901013501 72 167 1.0 3.0 0.00 0.00 0.00 88 1056.4
20260901013449 72 166 1.0 3.0 0.00 0.00 0.00 88 1056.4
20260901013436 72 166 1.0 3.0 0.00 0.00 0.00 88 1056.4
20260901012943 72 166 1.0 3.0 0.00 0.00 0.00 88 1056.3
20260901012846 72 166 2.0 3.0 0.00 0.00 0.00 88 1056.3
20260901012822 72 166 2.0 3.0 0.00 0.00 0.00 88 1056.3
20260901012813 72 166 2.0 3.0 0.00 0.00 0.00 88 1056.3
20260901012445 72 167 2.0 4.0 0.00 0.00 0.00 88 1056.4
20260901012440 72 166 2.0 4.0 0.00 0.00 0.00 88 1056.4
20260901012341 72 166 2.0 4.0 0.00 0.00 0.00 88 1056.4
20260901012242 72 166 2.0 4.0 0.00 0.00 0.00 88 1056.4
20260901012143 72 168 2.0 4.0 0.00 0.00 0.00 88 1056.4
20260901012042 72 166 2.0 4.0 0.00 0.00 0.00 88 1056.4
20260901011945 72 166 2.0 4.0 0.00 0.00 0.00 88 1056.3
20260901011933 72 166 2.0 4.0 0.00 0.00 0.00 88 1056.3
20260901011924 72 167 1.0 4.0 0.00 0.00 0.00 88 1056.3
20260901011625 72 167 1.0 4.0 0.00 0.00 0.00 88 1056.4
20260901011614 72 159 1.0 2.0 0.00 0.00 0.00 88 1056.3
20260901011608 72 160 1.0 2.0 0.00 0.00 0.00 88 1056.3
20260901011240 72 160 0.0 2.0 0.00 0.00 0.00 87 1056.3
20260901011136 72 159 0.0 2.0 0.00 0.00 0.00 87 1056.3
20260901011036 72 160 0.0 2.0 0.00 0.00 0.00 87 1056.3
20260901011002 72 160 0.0 2.0 0.00 0.00 0.00 87 1056.3
20260901010951 72 159 0.0 4.0 0.00 0.00 0.00 87 1056.3
20260901010939 72 159 1.0 4.0 0.00 0.00 0.00 87 1056.3
20260901010708 72 158 1.0 4.0 0.00 0.00 0.00 88 1056.3
20260901010654 72 159 1.0 4.0 0.00 0.00 0.00 88 1056.3
20260901010336 72 160 1.0 4.0 0.00 0.00 0.00 88 1056.4
20260901010327 72 160 1.0 4.0 0.00 0.00 0.00 87 1056.3
20260901010305 72 160 1.0 4.0 0.00 0.00 0.00 87 1056.3
20260901005938 72 159 0.0 4.0 0.00 0.00 0.00 87 1056.3
20260901005906 72 159 0.0 2.0 0.00 0.00 0.00 87 1056.3
20260901005858 72 159 0.0 0.0 0.00 0.00 0.00 87 1056.3
20260901005603 72 160 0.0 0.0 0.00 0.00 0.00 87 1056.3
20260901005546 72 159 0.0 0.0 0.00 0.00 0.00 87 1056.3
20260901005530 72 159 0.0 0.0 0.00 0.00 0.00 87 1056.3
20260901005301 72 158 0.0 0.0 0.00 0.00 0.00 87 1056.3
20260901004939 72 160 0.0 0.0 0.00 0.00 0.00 87 1056.4
20260901004836 72 159 0.0 0.0 0.00 0.00 0.00 87 1056.4
20260901004736 72 159 0.0 0.0 0.00 0.00 0.00 87 1056.4
20260901004637 72 160 0.0 0.0 0.00 0.00 0.00 87 1056.4
20260901004536 72 160 0.0 0.0 0.00 0.00 0.00 87 1056.4
20260901004441 72 160 0.0 0.0 0.00 0.00 0.00 87 1056.4
20260901004335 72 158 0.0 0.0 0.00 0.00 0.00 87 1056.4
20260901004235 72 159 0.0 0.0 0.00 0.00 0.00 87 1056.4
20260901004136 72 159 0.0 0.0 0.00 0.00 0.00 87 1056.4
20260901004036 72 160 0.0 0.0 0.00 0.00 0.00 87 1056.4
20260901003942 72 159 0.0 0.0 0.00 0.00 0.00 87 1056.4
20260901003832 72 159 0.0 0.0 0.00 0.00 0.00 87 1056.4
20260901003755 72 160 0.0 0.0 0.00 0.00 0.00 87 1056.4
20260901003742 72 160 0.0 0.0 0.00 0.00 0.00 87 1056.4
20260901003727 72 159 0.0 0.0 0.00 0.00 0.00 87 1056.4
20260901003714 72 160 0.0 0.0 0.00 0.00 0.00 87 1056.4
20260901003132 72 160 0.0 0.0 0.00 0.00 0.00 87 1056.4
20260901003111 72 159 0.0 0.0 0.00 0.00 0.00 87 1056.4
20260901003055 72 159 0.0 0.0 0.00 0.00 0.00 87 1056.4
20260901002732 72 160 0.0 0.0 0.00 0.00 0.00 87 1056.4
20260901002631 72 159 0.0 0.0 0.00 0.00 0.00 87 1056.4
20260901002610 72 159 0.0 0.0 0.00 0.00 0.00 87 1056.4
20260901002558 72 160 0.0 0.0 0.00 0.00 0.00 87 1056.4
20260901002232 72 159 0.0 0.0 0.00 0.00 0.00 87 1056.4
20260901002134 72 160 0.0 0.0 0.00 0.00 0.00 87 1056.5
20260901002115 72 159 0.0 0.0 0.00 0.00 0.00 87 1056.5
20260901002101 72 159 0.0 0.0 0.00 0.00 0.00 87 1056.4
20260901002051 72 159 0.0 0.0 0.00 0.00 0.00 87 1056.5
20260901002043 72 159 0.0 0.0 0.00 0.00 0.00 87 1056.5
20260901002034 72 158 0.0 0.0 0.00 0.00 0.00 87 1056.5
20260901002019 72 160 0.0 0.0 0.00 0.00 0.00 87 1056.4
20260901002005 72 160 0.0 0.0 0.00 0.00 0.00 87 1056.5
20260901001736 72 159 0.0 0.0 0.00 0.00 0.00 87 1056.4
20260901001506 72 159 0.0 0.0 0.00 0.00 0.00 87 1056.4
20260901001450 72 159 0.0 0.0 0.00 0.00 0.00 87 1056.4
20260901001217 72 159 0.0 0.0 0.00 0.00 0.00 87 1056.4
20260901001203 72 161 0.0 0.0 0.00 0.00 0.00 87 1056.4
20260901001150 72 160 0.0 0.0 0.00 0.00 0.00 87 1056.4
20260901000929 72 159 0.0 0.0 0.00 0.00 0.00 87 1056.4
20260901000656 72 159 0.0 0.0 0.00 0.00 0.00 87 1056.5
20260901000648 72 159 0.0 0.0 0.00 0.00 0.00 87 1056.5
20260901000638 72 160 0.0 0.0 0.00 0.00 0.00 87 1056.5
20260901000624 72 159 0.0 0.0 0.00 0.00 0.00 87 1056.4
20260901000617 72 159 0.0 0.0 0.00 0.00 0.00 87 1056.4
20260901000608 72 160 0.0 0.0 0.00 0.00 0.00 87 1056.5
20260901000559 72 160 0.0 0.0 0.00 0.00 0.00 87 1056.5
20260901000548 72 160 0.0 0.0 0.00 0.00 0.00 87 1056.5
20260831235624 72 159 0.0 0.0 0.00 0.00 0.00 87 1056.5
20260831235614 72 160 0.0 0.0 0.00 0.00 0.00 87 1056.5
20260831235127 72 160 0.0 0.0 0.00 0.00 0.00 87 1056.5
20260831234858 72 159 0.0 0.0 0.00 0.00 0.00 87 1056.5
20260831234848 72 159 0.0 0.0 0.00 0.00 0.00 87 1056.5
20260831234840 72 159 0.0 0.0 0.00 0.00 0.00 87 1056.6
20260831234351 72 159 0.0 0.0 0.00 0.00 0.00 87 1056.5
20260831234024 72 160 0.0 0.0 0.00 0.00 0.00 87 1056.5
20260831233934 72 160 0.0 0.0 0.00 0.00 0.00 87 1056.6
20260831233922 72 159 0.0 0.0 0.00 0.00 0.00 87 1056.6
20260831233849 72 160 0.0 0.0 0.00 0.00 0.00 87 1056.5
20260831233841 72 159 0.0 0.0 0.00 0.00 0.00 87 1056.5
20260831233829 72 158 0.0 0.0 0.00 0.00 0.00 87 1056.5
20260831233819 72 159 0.0 0.0 0.00 0.00 0.00 87 1056.5
20260831233813 72 160 0.0 0.0 0.00 0.00 0.00 87 1056.5
20260831233805 72 159 0.0 0.0 0.00 0.00 0.00 87 1056.5
20260831233537 72 160 0.0 0.0 0.00 0.00 0.00 87 1056.5
20260831233259 71 159 0.0 0.0 0.00 0.00 0.00 87 1056.5
20260831233033 71 159 0.0 0.0 0.00 0.00 0.00 87 1056.5
20260831232729 71 160 0.0 1.0 0.00 0.00 0.00 87 1056.5
20260831232716 71 160 0.0 1.0 0.00 0.00 0.00 87 1056.4
20260831232701 71 157 0.0 1.0 0.00 0.00 0.00 87 1056.4
20260831232654 71 159 0.0 1.0 0.00 0.00 0.00 87 1056.4
20260831232429 71 160 0.0 1.0 0.00 0.00 0.00 87 1056.4
20260831232106 71 160 0.0 2.0 0.00 0.00 0.00 87 1056.4
20260831232005 71 159 1.0 2.0 0.00 0.00 0.00 87 1056.4
20260831231909 71 159 1.0 2.0 0.00 0.00 0.00 87 1056.4
20260831231806 71 159 1.0 2.0 0.00 0.00 0.00 87 1056.4
20260831231706 71 160 1.0 2.0 0.00 0.00 0.00 87 1056.4
20260831231604 71 159 1.0 2.0 0.00 0.00 0.00 87 1056.4
20260831231503 71 160 1.0 2.0 0.00 0.00 0.00 87 1056.4
20260831231431 71 159 1.0 2.0 0.00 0.00 0.00 87 1056.4
20260831231403 71 160 1.0 2.0 0.00 0.00 0.00 87 1056.4
20260831231304 71 159 1.0 2.0 0.00 0.00 0.00 87 1056.4
20260831231204 71 159 1.0 2.0 0.00 0.00 0.00 87 1056.4
20260831231103 71 160 1.0 2.0 0.00 0.00 0.00 87 1056.3
20260831231003 71 159 1.0 2.0 0.00 0.00 0.00 87 1056.4
20260831230936 71 159 1.0 2.0 0.00 0.00 0.00 87 1056.4
20260831230928 71 159 1.0 2.0 0.00 0.00 0.00 87 1056.4
20260831230603 71 160 1.0 2.0 0.00 0.00 0.00 87 1056.4
20260831230503 71 160 1.0 2.0 0.00 0.00 0.00 87 1056.4
20260831230431 71 159 1.0 2.0 0.00 0.00 0.00 87 1056.4
20260831230402 71 160 1.0 2.0 0.00 0.00 0.00 87 1056.4
20260831230301 71 160 0.0 2.0 0.00 0.00 0.00 87 1056.3
20260831230159 71 159 0.0 2.0 0.00 0.00 0.00 87 1056.3
20260831230059 71 160 0.0 2.0 0.00 0.00 0.00 87 1056.3
20260831225958 71 160 0.0 0.0 0.00 0.00 0.00 87 1056.3
20260831225937 72 159 0.0 0.0 0.00 0.00 0.00 87 1056.3
20260831225857 72 159 0.0 0.0 0.00 0.00 0.00 87 1056.3
20260831225821 72 159 0.0 0.0 0.00 0.00 0.00 86 1056.3
20260831225808 72 159 0.0 0.0 0.00 0.00 0.00 86 1056.2
20260831225754 72 160 0.0 0.0 0.00 0.00 0.00 86 1056.2
20260831225737 72 159 0.0 0.0 0.00 0.00 0.00 86 1056.2
20260831225727 72 159 0.0 0.0 0.00 0.00 0.00 86 1056.2
20260831225721 72 159 0.0 0.0 0.00 0.00 0.00 86 1056.3
20260831225451 72 159 0.0 0.0 0.00 0.00 0.00 86 1056.2
20260831225225 72 159 0.0 0.0 0.00 0.00 0.00 86 1056.3
20260831224712 72 159 0.0 0.0 0.00 0.00 0.00 86 1056.2
20260831224704 72 159 0.0 0.0 0.00 0.00 0.00 86 1056.2
20260831224431 72 159 0.0 0.0 0.00 0.00 0.00 86 1056.2
20260831224341 72 160 0.0 0.0 0.00 0.00 0.00 86 1056.2
20260831224242 72 160 0.0 0.0 0.00 0.00 0.00 86 1056.2
20260831224142 72 159 0.0 0.0 0.00 0.00 0.00 86 1056.2
20260831224040 72 159 0.0 0.0 0.00 0.00 0.00 86 1056.2
20260831223932 72 159 0.0 0.0 0.00 0.00 0.00 86 1056.2
20260831223837 72 159 0.0 0.0 0.00 0.00 0.00 86 1056.2
20260831223737 72 160 0.0 0.0 0.00 0.00 0.00 86 1056.2
20260831223637 72 159 0.0 0.0 0.00 0.00 0.00 86 1056.2
20260831223609 72 159 0.0 0.0 0.00 0.00 0.00 86 1056.2
20260831223559 72 160 0.0 0.0 0.00 0.00 0.00 86 1056.2
20260831223553 72 159 0.0 0.0 0.00 0.00 0.00 86 1056.2
20260831223304 72 160 0.0 0.0 0.00 0.00 0.00 86 1056.2
20260831223251 72 159 0.0 0.0 0.00 0.00 0.00 86 1056.2
20260831223238 72 159 0.0 0.0 0.00 0.00 0.00 86 1056.2
20260831223225 72 159 0.0 0.0 0.00 0.00 0.00 86 1056.2
20260831223215 72 159 0.0 0.0 0.00 0.00 0.00 86 1056.2
20260831223205 71 159 0.0 0.0 0.00 0.00 0.00 86 1056.2
20260831222929 71 159 0.0 0.0 0.00 0.00 0.00 86 1056.2
20260831222445 71 159 0.0 0.0 0.00 0.00 0.00 87 1056.2
20260831222206 71 158 0.0 0.0 0.00 0.00 0.00 86 1056.2
20260831222152 71 159 0.0 0.0 0.00 0.00 0.00 87 1056.1
20260831221919 71 160 0.0 0.0 0.00 0.00 0.00 87 1056.2
20260831221818 71 159 0.0 0.0 0.00 0.00 0.00 87 1056.1
20260831221738 71 159 0.0 0.0 0.00 0.00 0.00 87 1056.1
20260831221727 71 159 0.0 0.0 0.00 0.00 0.00 87 1056.1
20260831221709 71 159 0.0 0.0 0.00 0.00 0.00 87 1056.1
20260831221653 71 159 0.0 0.0 0.00 0.00 0.00 87 1056.1
20260831221645 71 160 0.0 0.0 0.00 0.00 0.00 87 1056.1
20260831221420 71 159 0.0 0.0 0.00 0.00 0.00 87 1056.0
20260831220903 71 159 0.0 0.0 0.00 0.00 0.00 87 1056.1
20260831220804 71 159 0.0 0.0 0.00 0.00 0.00 87 1056.1
20260831220704 71 158 0.0 0.0 0.00 0.00 0.00 87 1056.1
20260831220604 71 159 0.0 0.0 0.00 0.00 0.00 87 1056.1
20260831220503 71 159 0.0 0.0 0.00 0.00 0.00 87 1056.1
20260831220431 71 159 0.0 1.0 0.00 0.00 0.00 87 1056.1
20260831220403 71 160 0.0 2.0 0.00 0.00 0.00 87 1056.1
20260831220340 71 159 0.0 2.0 0.00 0.00 0.00 87 1056.1
20260831220331 71 158 1.0 2.0 0.00 0.00 0.00 87 1056.1
20260831220002 71 159 1.0 2.0 0.00 0.00 0.00 87 1056.1
20260831215934 71 159 1.0 2.0 0.00 0.00 0.00 87 1056.1
20260831215924 71 159 1.0 2.0 0.00 0.00 0.00 87 1056.1
20260831215912 71 159 1.0 2.0 0.00 0.00 0.00 87 1056.1
20260831215902 71 160 1.0 2.0 0.00 0.00 0.00 87 1056.1
20260831215850 71 159 1.0 2.0 0.00 0.00 0.00 87 1056.1
20260831215843 71 159 1.0 2.0 0.00 0.00 0.00 87 1056.1
20260831215618 71 159 1.0 2.0 0.00 0.00 0.00 87 1056.1
20260831215606 71 159 1.0 2.0 0.00 0.00 0.00 87 1056.1
20260831215557 71 159 1.0 2.0 0.00 0.00 0.00 87 1056.1
20260831214753 71 159 1.0 2.0 0.00 0.00 0.00 87 1056.1
20260831214715 71 160 1.0 2.0 0.00 0.00 0.00 87 1056.1
20260831214705 71 159 1.0 2.0 0.00 0.00 0.00 87 1056.1
20260831214649 71 159 1.0 2.0 0.00 0.00 0.00 87 1056.1
20260831214350 71 160 1.0 2.0 0.00 0.00 0.00 87 1056.1
20260831214247 71 159 0.0 2.0 0.00 0.00 0.00 87 1056.0
20260831214144 71 160 0.0 2.0 0.00 0.00 0.00 87 1056.0
20260831214102 71 159 0.0 2.0 0.00 0.00 0.00 87 1056.1
20260831214049 71 159 0.0 2.0 0.00 0.00 0.00 87 1056.1
20260831214043 71 158 0.0 2.0 0.00 0.00 0.00 87 1056.1
20260831214034 71 159 0.0 0.0 0.00 0.00 0.00 87 1056.1
20260831214020 71 158 0.0 0.0 0.00 0.00 0.00 87 1056.0
20260831214012 71 158 0.0 0.0 0.00 0.00 0.00 87 1056.0
20260831213739 71 158 0.0 0.0 0.00 0.00 0.00 86 1056.0
20260831213246 71 158 0.0 0.0 0.00 0.00 0.00 86 1056.0
20260831213235 71 158 0.0 0.0 0.00 0.00 0.00 86 1056.0
20260831213221 71 158 0.0 0.0 0.00 0.00 0.00 86 1056.0
20260831213211 71 158 0.0 0.0 0.00 0.00 0.00 86 1056.0
20260831212941 71 159 0.0 0.0 0.00 0.00 0.00 86 1056.0
20260831212706 71 158 0.0 0.0 0.00 0.00 0.00 86 1056.0
20260831212442 71 158 0.0 0.0 0.00 0.00 0.00 86 1056.0
20260831212427 71 158 0.0 0.0 0.00 0.00 0.00 86 1055.8
20260831212417 71 158 0.0 0.0 0.00 0.00 0.00 86 1055.8
20260831211924 71 158 0.0 0.0 0.00 0.00 0.00 85 1055.8
20260831211831 71 159 0.0 0.0 0.00 0.00 0.00 85 1055.8
20260831211730 71 158 0.0 0.0 0.00 0.00 0.00 85 1055.8
20260831211630 71 158 0.0 0.0 0.00 0.00 0.00 85 1055.8
20260831211611 71 158 0.0 0.0 0.00 0.00 0.00 85 1055.8
20260831211555 71 158 0.0 0.0 0.00 0.00 0.00 85 1055.8
20260831211230 71 158 0.0 0.0 0.00 0.00 0.00 85 1055.8
20260831211130 71 158 0.0 0.0 0.00 0.00 0.00 85 1055.8
20260831211030 71 158 0.0 0.0 0.00 0.00 0.00 85 1055.8
20260831210930 71 158 0.0 0.0 0.00 0.00 0.00 85 1055.8
20260831210919 72 158 0.0 0.0 0.00 0.00 0.00 85 1055.8
20260831210832 72 158 0.0 0.0 0.00 0.00 0.00 85 1055.8
20260831210729 72 159 0.0 0.0 0.00 0.00 0.00 85 1055.8
20260831210701 72 158 0.0 0.0 0.00 0.00 0.00 85 1055.8
20260831210653 72 158 0.0 0.0 0.00 0.00 0.00 85 1055.8
20260831210419 72 158 0.0 0.0 0.00 0.00 0.00 85 1055.7
20260831210331 72 158 0.0 0.0 0.00 0.00 0.00 85 1055.8
20260831210230 72 158 0.0 0.0 0.00 0.00 0.00 85 1055.7
20260831210130 72 158 0.0 0.0 0.00 0.00 0.00 85 1055.8
20260831210031 72 158 0.0 0.0 0.00 0.00 0.00 85 1055.8
20260831205930 72 159 0.0 0.0 0.00 0.00 0.00 85 1055.7
20260831205920 72 158 0.0 0.0 0.00 0.00 0.00 85 1055.7
20260831205859 72 158 0.0 0.0 0.00 0.00 0.00 85 1055.7
20260831205851 72 158 0.0 1.0 0.00 0.00 0.00 84 1055.7
20260831205526 72 158 0.0 1.0 0.00 0.00 0.00 84 1055.7
20260831205418 72 158 0.0 1.0 0.00 0.00 0.00 84 1055.7
20260831205322 72 158 0.0 2.0 0.00 0.00 0.00 84 1055.7
20260831205222 72 158 0.0 2.0 0.00 0.00 0.00 84 1055.7
20260831205120 72 158 0.0 2.0 0.00 0.00 0.00 84 1055.7
20260831205021 72 158 0.0 2.0 0.00 0.00 0.00 84 1055.7
20260831204919 72 158 0.0 2.0 0.00 0.00 0.00 84 1055.7
20260831204818 72 158 1.0 2.0 0.00 0.00 0.00 84 1055.7
20260831204716 72 158 1.0 2.0 0.00 0.00 0.00 84 1055.7
20260831204655 72 158 1.0 2.0 0.00 0.00 0.00 84 1055.7
20260831204645 72 159 1.0 2.0 0.00 0.00 0.00 84 1055.6
20260831204629 72 158 1.0 2.0 0.00 0.00 0.00 84 1055.6
20260831204317 72 158 0.0 2.0 0.00 0.00 0.00 84 1055.6
20260831204218 72 158 0.0 2.0 0.00 0.00 0.00 84 1055.6
20260831204112 72 158 0.0 2.0 0.00 0.00 0.00 84 1055.6
20260831204011 72 158 0.0 2.0 0.00 0.00 0.00 84 1055.6
20260831203910 72 158 0.0 1.0 0.00 0.00 0.00 84 1055.6
20260831203810 72 158 0.0 1.0 0.00 0.00 0.00 84 1055.6
20260831203711 72 158 0.0 1.0 0.00 0.00 0.00 84 1055.6
20260831203610 72 158 0.0 1.0 0.00 0.00 0.00 84 1055.6
20260831203510 72 159 0.0 0.0 0.00 0.00 0.00 84 1055.5
20260831203419 72 158 0.0 0.0 0.00 0.00 0.00 84 1055.5
20260831203407 72 158 0.0 0.0 0.00 0.00 0.00 84 1055.6
20260831203308 72 158 0.0 1.0 0.00 0.00 0.00 84 1055.6
20260831203208 73 158 0.0 1.0 0.00 0.00 0.00 84 1055.5
20260831203108 73 158 0.0 1.0 0.00 0.00 0.00 84 1055.5
20260831203010 73 158 0.0 1.0 0.00 0.00 0.00 84 1055.5
20260831202947 73 158 0.0 1.0 0.00 0.00 0.00 84 1055.5
20260831202935 73 158 0.0 1.0 0.00 0.00 0.00 84 1055.5
20260831202924 73 158 0.0 1.0 0.00 0.00 0.00 84 1055.5
20260831202912 73 158 0.0 1.0 0.00 0.00 0.00 83 1055.5
20260831202904 73 158 0.0 1.0 0.00 0.00 0.00 83 1055.5
20260831202632 73 158 0.0 1.0 0.00 0.00 0.00 83 1055.5
20260831202623 73 158 0.0 2.0 0.00 0.00 0.00 83 1055.5
20260831202616 73 158 0.0 2.0 0.00 0.00 0.00 83 1055.5
20260831201903 73 159 1.0 2.0 0.00 0.00 0.00 83 1055.4
20260831201803 73 158 1.0 2.0 0.00 0.00 0.00 83 1055.4
20260831201704 73 159 1.0 2.0 0.00 0.00 0.00 83 1055.4
20260831201603 73 158 1.0 2.0 0.00 0.00 0.00 83 1055.4
20260831201503 73 158 1.0 2.0 0.00 0.00 0.00 83 1055.4
20260831201404 73 158 1.0 2.0 0.00 0.00 0.00 83 1055.4
20260831201304 73 158 1.0 2.0 0.00 0.00 0.00 83 1055.4
20260831201205 73 158 1.0 4.0 0.00 0.00 0.00 83 1055.3
20260831201103 73 158 1.0 4.0 0.00 0.00 0.00 82 1055.3
20260831201050 73 158 1.0 4.0 0.00 0.00 0.00 82 1055.3
20260831201028 73 158 1.0 4.0 0.00 0.00 0.00 82 1055.3
20260831200705 73 158 1.0 4.0 0.00 0.00 0.00 82 1055.3
20260831200603 73 157 1.0 4.0 0.00 0.00 0.00 82 1055.3
20260831200506 73 158 1.0 4.0 0.00 0.00 0.00 82 1055.3
20260831200417 73 158 1.0 4.0 0.00 0.00 0.00 82 1055.2
20260831200404 74 158 1.0 4.0 0.00 0.00 0.00 82 1055.2
20260831200328 74 158 1.0 4.0 0.00 0.00 0.00 82 1055.2
20260831200320 74 158 1.0 4.0 0.00 0.00 0.00 82 1055.2
20260831200307 74 136 1.0 3.0 0.00 0.00 0.00 82 1055.2
20260831200037 74 135 0.0 2.0 0.00 0.00 0.00 82 1055.2
20260831200030 74 136 0.0 2.0 0.00 0.00 0.00 82 1055.1
20260831195704 74 135 0.0 2.0 0.00 0.00 0.00 83 1055.1
20260831195603 74 135 1.0 2.0 0.00 0.00 0.00 82 1055.1
20260831195503 74 136 1.0 3.0 0.00 0.00 0.00 82 1055.1
20260831195441 74 135 1.0 3.0 0.00 0.00 0.00 82 1055.0
20260831195433 74 135 1.0 3.0 0.00 0.00 0.00 82 1055.0
20260831195123 74 135 1.0 3.0 0.00 0.00 0.00 82 1055.0
20260831195112 74 136 1.0 3.0 0.00 0.00 0.00 82 1055.0
20260831195102 74 136 1.0 3.0 0.00 0.00 0.00 82 1055.0
20260831195055 74 135 1.0 3.0 0.00 0.00 0.00 82 1055.0
20260831195047 74 136 1.0 3.0 0.00 0.00 0.00 82 1055.0
20260831195037 74 136 1.0 3.0 0.00 0.00 0.00 82 1055.0
20260831195025 74 136 0.0 3.0 0.00 0.00 0.00 82 1054.9
20260831195015 74 134 0.0 3.0 0.00 0.00 0.00 82 1054.9
20260831194748 74 133 0.0 3.0 0.00 0.00 0.00 82 1054.9
20260831194740 74 134 0.0 3.0 0.00 0.00 0.00 82 1054.9
20260831194249 74 192 0.0 0.0 0.00 0.00 0.00 81 1054.8
20260831194025 74 193 0.0 0.0 0.00 0.00 0.00 81 1054.8
20260831193705 74 193 0.0 0.0 0.00 0.00 0.00 81 1054.8
20260831193604 74 193 0.0 0.0 0.00 0.00 0.00 81 1054.8
20260831193503 74 197 0.0 0.0 0.00 0.00 0.00 81 1054.8
20260831193404 74 197 0.0 0.0 0.00 0.00 0.00 81 1054.8
20260831193303 74 197 0.0 0.0 0.00 0.00 0.00 81 1054.8
20260831193218 75 197 0.0 0.0 0.00 0.00 0.00 81 1054.7
20260831193151 75 197 0.0 0.0 0.00 0.00 0.00 81 1054.7
20260831193139 75 197 0.0 0.0 0.00 0.00 0.00 81 1054.7
20260831192903 75 197 0.0 0.0 0.00 0.00 0.00 81 1054.7
20260831192804 75 197 0.0 0.0 0.00 0.00 0.00 81 1054.7
20260831192705 75 197 0.0 0.0 0.00 0.00 0.00 81 1054.6
20260831192605 75 197 0.0 0.0 0.00 0.00 0.00 80 1054.6
20260831192503 75 197 0.0 1.0 0.00 0.00 0.00 80 1054.6
20260831192403 75 197 0.0 1.0 0.00 0.00 0.00 80 1054.6
20260831192338 75 197 0.0 1.0 0.00 0.00 0.00 80 1054.6
20260831192331 75 197 0.0 1.0 0.00 0.00 0.00 80 1054.6
20260831192046 75 197 0.0 2.0 0.00 0.00 0.00 80 1054.6
20260831192027 75 197 0.0 3.0 0.00 0.00 0.00 80 1054.6
20260831191704 75 197 0.0 3.0 0.00 0.00 0.00 80 1054.5
20260831191603 75 197 0.0 3.0 0.00 0.00 0.00 80 1054.5
20260831191503 75 199 0.0 3.0 0.00 0.00 0.00 80 1054.5
20260831191403 75 199 0.0 3.0 0.00 0.00 0.00 80 1054.4
20260831191303 75 199 0.0 3.0 0.00 0.00 0.00 80 1054.5
20260831191204 75 199 0.0 3.0 0.00 0.00 0.00 79 1054.4
20260831191103 75 199 0.0 3.0 0.00 0.00 0.00 79 1054.5
20260831191003 75 198 1.0 3.0 0.00 0.00 0.00 79 1054.5
20260831190919 75 200 1.0 3.0 0.00 0.00 0.00 79 1054.5
20260831190906 75 201 1.0 3.0 0.00 0.00 0.00 79 1054.5
20260831190803 75 201 1.0 4.0 0.00 0.00 0.00 79 1054.5
20260831190705 75 200 1.0 4.0 0.00 0.00 0.00 79 1054.5
20260831190603 75 200 1.0 4.0 0.00 0.00 0.00 79 1054.5
20260831190503 76 201 1.0 4.0 0.00 0.00 0.00 79 1054.4
20260831190403 76 201 1.0 4.0 0.00 0.00 0.00 79 1054.4
20260831190303 76 201 1.0 4.0 0.00 0.00 0.00 79 1054.4
20260831190237 76 201 1.0 4.0 0.00 0.00 0.00 79 1054.4
20260831190228 76 200 1.0 5.0 0.00 0.00 0.00 79 1054.3
20260831185902 76 206 1.0 5.0 0.00 0.00 0.00 79 1054.3
20260831185834 76 207 1.0 5.0 0.00 0.00 0.00 79 1054.3
20260831185826 76 207 1.0 5.0 0.00 0.00 0.00 79 1054.2
20260831185550 76 206 1.0 5.0 0.00 0.00 0.00 78 1054.2
20260831185533 76 207 1.0 5.0 0.00 0.00 0.00 78 1054.2
20260831185520 76 208 1.0 5.0 0.00 0.00 0.00 78 1054.2
20260831185509 76 204 1.0 5.0 0.00 0.00 0.00 78 1054.2
20260831185022 76 186 1.0 4.0 0.00 0.00 0.00 78 1054.2
20260831185011 76 187 1.0 4.0 0.00 0.00 0.00 78 1054.2
20260831185003 76 186 1.0 4.0 0.00 0.00 0.00 78 1054.2
20260831184953 76 186 1.0 4.0 0.00 0.00 0.00 78 1054.2
20260831184943 76 187 1.0 4.0 0.00 0.00 0.00 78 1054.2
20260831184935 76 187 1.0 4.0 0.00 0.00 0.00 78 1054.2
20260831184924 76 186 1.0 4.0 0.00 0.00 0.00 78 1054.2
20260831184917 76 186 1.0 4.0 0.00 0.00 0.00 78 1054.2
20260831184907 76 187 1.0 4.0 0.00 0.00 0.00 78 1054.2
20260831184629 76 185 1.0 4.0 0.00 0.00 0.00 78 1054.2
20260831184621 76 185 1.0 4.0 0.00 0.00 0.00 78 1054.2
20260831184131 76 198 1.0 6.0 0.00 0.00 0.00 78 1054.2
20260831183857 76 199 2.0 6.0 0.00 0.00 0.00 78 1054.2
20260831183630 77 198 1.0 6.0 0.00 0.00 0.00 77 1054.1
20260831183623 77 198 1.0 6.0 0.00 0.00 0.00 77 1054.1
20260831183615 77 199 2.0 6.0 0.00 0.00 0.00 77 1054.1
20260831183559 77 197 2.0 6.0 0.00 0.00 0.00 77 1054.1
20260831183111 77 195 1.0 4.0 0.00 0.00 0.00 77 1054.1
20260831182750 77 195 1.0 4.0 0.00 0.00 0.00 77 1054.1
20260831182717 77 195 1.0 4.0 0.00 0.00 0.00 77 1054.1
20260831182706 77 195 2.0 5.0 0.00 0.00 0.00 77 1054.1
20260831182408 77 197 2.0 7.0 0.00 0.00 0.00 77 1054.1
20260831182344 77 196 2.0 7.0 0.00 0.00 0.00 77 1054.1
20260831182243 77 194 2.0 7.0 0.00 0.00 0.00 77 1054.1
20260831182143 77 194 2.0 7.0 0.00 0.00 0.00 77 1054.0
20260831182041 77 194 2.0 7.0 0.00 0.00 0.00 77 1054.0
20260831181942 77 194 2.0 7.0 0.00 0.00 0.00 77 1054.0
20260831181907 77 194 2.0 7.0 0.00 0.00 0.00 77 1054.0
20260831181842 77 193 2.0 7.0 0.00 0.00 0.00 77 1054.0
20260831181814 77 193 2.0 7.0 0.00 0.00 0.00 77 1054.0
20260831181803 77 193 2.0 7.0 0.00 0.00 0.00 76 1054.0
20260831181440 77 143 1.0 6.0 0.00 0.00 0.00 76 1054.0
20260831181407 77 208 2.0 5.0 0.00 0.00 0.00 76 1054.0
20260831181340 77 208 2.0 5.0 0.00 0.00 0.00 76 1054.0
20260831181236 77 206 2.0 5.0 0.00 0.00 0.00 76 1054.0
20260831181136 77 197 2.0 7.0 0.00 0.00 0.00 76 1054.0
20260831181036 77 197 2.0 7.0 0.00 0.00 0.00 76 1054.0
20260831180935 77 196 3.0 8.0 0.00 0.00 0.00 76 1054.0
20260831180906 77 251 3.0 8.0 0.00 0.00 0.00 76 1053.9
20260831180836 77 251 3.0 8.0 0.00 0.00 0.00 76 1053.9
20260831180736 77 254 3.0 8.0 0.00 0.00 0.00 76 1054.0
20260831180636 78 172 3.0 8.0 0.00 0.00 0.00 76 1054.0
20260831180535 78 172 4.0 8.0 0.00 0.00 0.00 75 1054.0
20260831180438 78 172 4.0 8.0 0.00 0.00 0.00 75 1054.0
20260831180406 78 171 4.0 8.0 0.00 0.00 0.00 75 1054.0
20260831180336 78 187 4.0 8.0 0.00 0.00 0.00 75 1054.0
20260831180308 78 186 4.0 8.0 0.00 0.00 0.00 75 1054.0
20260831180257 78 227 4.0 8.0 0.00 0.00 0.00 75 1054.0
20260831175959 78 143 4.0 7.0 0.00 0.00 0.00 75 1054.0
20260831175946 78 190 4.0 7.0 0.00 0.00 0.00 75 1054.0
20260831175937 78 193 4.0 9.0 0.00 0.00 0.00 75 1054.0
20260831175929 78 220 4.0 9.0 0.00 0.00 0.00 75 1054.0
20260831175917 78 235 4.0 9.0 0.00 0.00 0.00 75 1054.0
20260831175909 78 234 5.0 10.0 0.00 0.00 0.00 75 1054.0
20260831175901 78 236 5.0 10.0 0.00 0.00 0.00 74 1053.9
20260831175850 78 237 5.0 10.0 0.00 0.00 0.00 74 1054.0
20260831175842 78 178 5.0 10.0 0.00 0.00 0.00 74 1054.0
20260831175609 78 213 5.0 12.0 0.00 0.00 0.00 74 1053.9
20260831175601 78 144 5.0 12.0 0.00 0.00 0.00 74 1054.0
20260831175549 78 128 5.0 12.0 0.00 0.00 0.00 74 1054.0
20260831175320 78 172 4.0 12.0 0.00 0.00 0.00 74 1054.0
20260831174828 78 193 4.0 12.0 0.00 0.00 0.00 74 1054.0
20260831174556 78 219 5.0 12.0 0.00 0.00 0.00 74 1054.0
20260831174550 78 221 5.0 12.0 0.00 0.00 0.00 74 1054.0
20260831174542 78 212 4.0 11.0 0.00 0.00 0.00 74 1054.0
20260831174528 78 207 4.0 11.0 0.00 0.00 0.00 74 1053.9
20260831174031 78 242 4.0 11.0 0.00 0.00 0.00 74 1053.9
20260831173757 78 258 4.0 9.0 0.00 0.00 0.00 74 1053.9
20260831173433 78 218 4.0 9.0 0.00 0.00 0.00 74 1054.0
20260831173405 78 249 4.0 9.0 0.00 0.00 0.00 74 1053.9
20260831173332 78 213 4.0 8.0 0.00 0.00 0.00 74 1053.9
20260831173232 78 184 4.0 8.0 0.00 0.00 0.00 74 1053.8
20260831173134 78 113 4.0 9.0 0.00 0.00 0.00 74 1053.8
20260831173034 79 187 4.0 9.0 0.00 0.00 0.00 74 1053.8
20260831172933 79 179 4.0 10.0 0.00 0.00 0.00 74 1053.9
20260831172906 79 178 4.0 10.0 0.00 0.00 0.00 74 1053.8
20260831172833 79 217 4.0 10.0 0.00 0.00 0.00 74 1053.8
20260831172732 79 163 4.0 10.0 0.00 0.00 0.00 74 1053.8
20260831172633 79 162 4.0 10.0 0.00 0.00 0.00 74 1053.8
20260831172533 79 113 4.0 10.0 0.00 0.00 0.00 73 1053.9
20260831172432 79 226 4.0 10.0 0.00 0.00 0.00 73 1053.9
20260831172415 79 226 4.0 10.0 0.00 0.00 0.00 73 1053.8
20260831172405 79 227 4.0 10.0 0.00 0.00 0.00 73 1053.8
20260831172358 79 206 4.0 10.0 0.00 0.00 0.00 73 1053.9
20260831172033 79 233 4.0 10.0 0.00 0.00 0.00 73 1053.9
20260831172009 79 245 4.0 10.0 0.00 0.00 0.00 73 1053.9
20260831171959 79 195 4.0 10.0 0.00 0.00 0.00 73 1053.8
20260831171952 79 178 4.0 10.0 0.00 0.00 0.00 73 1053.8
20260831171632 79 208 4.0 10.0 0.00 0.00 0.00 72 1053.9
20260831171531 79 172 4.0 10.0 0.00 0.00 0.00 73 1053.8
20260831171512 79 217 4.0 10.0 0.00 0.00 0.00 72 1053.9
20260831171502 79 177 4.0 10.0 0.00 0.00 0.00 72 1053.8
20260831171454 79 216 4.0 10.0 0.00 0.00 0.00 72 1053.8
20260831171131 80 274 4.0 10.0 0.00 0.00 0.00 72 1053.8
20260831171031 80 203 4.0 10.0 0.00 0.00 0.00 72 1053.9
20260831170931 80 187 4.0 10.0 0.00 0.00 0.00 72 1053.9
20260831170905 80 192 4.0 10.0 0.00 0.00 0.00 72 1053.9
20260831170832 80 169 4.0 10.0 0.00 0.00 0.00 72 1053.9
20260831170732 80 208 4.0 10.0 0.00 0.00 0.00 72 1053.9
20260831170632 80 168 4.0 10.0 0.00 0.00 0.00 72 1053.9
20260831170619 80 192 3.0 9.0 0.00 0.00 0.00 72 1053.9
20260831170611 80 191 4.0 11.0 0.00 0.00 0.00 72 1053.9
20260831170558 80 215 4.0 11.0 0.00 0.00 0.00 71 1053.9
20260831170231 80 190 4.0 11.0 0.00 0.00 0.00 71 1053.9
20260831170132 80 200 4.0 11.0 0.00 0.00 0.00 71 1053.9
20260831170032 80 210 5.0 11.0 0.00 0.00 0.00 71 1053.8
20260831165905 81 208 5.0 11.0 0.00 0.00 0.00 71 1053.8
20260831165829 81 208 5.0 11.0 0.00 0.00 0.00 71 1053.8
20260831165729 81 162 5.0 11.0 0.00 0.00 0.00 70 1053.8
20260831165628 81 235 5.0 11.0 0.00 0.00 0.00 70 1053.7
20260831165529 81 232 5.0 10.0 0.00 0.00 0.00 69 1053.8
20260831165428 81 180 5.0 10.0 0.00 0.00 0.00 69 1053.8
20260831165405 81 165 5.0 10.0 0.00 0.00 0.00 69 1053.7
20260831165329 82 196 5.0 11.0 0.00 0.00 0.00 69 1053.7
20260831165229 82 183 5.0 11.0 0.00 0.00 0.00 68 1053.8
20260831165127 82 223 5.0 12.0 0.00 0.00 0.00 68 1053.8
20260831165028 82 179 5.0 12.0 0.00 0.00 0.00 68 1053.8
20260831164927 82 162 5.0 12.0 0.00 0.00 0.00 68 1053.8
20260831164905 82 176 6.0 12.0 0.00 0.00 0.00 68 1053.8
20260831164827 82 189 6.0 12.0 0.00 0.00 0.00 68 1053.8
20260831164725 82 96 6.0 12.0 0.00 0.00 0.00 68 1053.8
20260831164625 82 224 6.0 12.0 0.00 0.00 0.00 68 1053.8
20260831164525 82 188 6.0 13.0 0.00 0.00 0.00 68 1053.9
20260831164425 82 145 7.0 13.0 0.00 0.00 0.00 68 1053.8
20260831164405 82 189 7.0 13.0 0.00 0.00 0.00 68 1053.9
20260831164325 82 206 7.0 13.0 0.00 0.00 0.00 68 1053.9
20260831164223 82 212 7.0 16.0 0.00 0.00 0.00 68 1053.9
20260831164143 82 239 7.0 16.0 0.00 0.00 0.00 68 1053.8
20260831164136 82 237 7.0 16.0 0.00 0.00 0.00 67 1053.9
20260831164122 82 199 7.0 16.0 0.00 0.00 0.00 67 1053.9
20260831164110 83 189 7.0 16.0 0.00 0.00 0.00 67 1053.9
20260831164100 83 206 7.0 16.0 0.00 0.00 0.00 67 1053.9
20260831163512 83 193 6.0 16.0 0.00 0.00 0.00 67 1053.9
20260831163417 83 224 6.0 16.0 0.00 0.00 0.00 66 1053.9
20260831163405 83 249 6.0 16.0 0.00 0.00 0.00 66 1053.9
20260831163312 83 237 6.0 16.0 0.00 0.00 0.00 66 1053.9
20260831163206 83 211 6.0 15.0 0.00 0.00 0.00 66 1053.9
20260831163150 83 167 7.0 12.0 0.00 0.00 0.00 66 1053.9
20260831163144 83 197 7.0 12.0 0.00 0.00 0.00 67 1054.0
20260831162906 83 215 7.0 12.0 0.00 0.00 0.00 66 1053.9
20260831162806 83 214 7.0 12.0 0.00 0.00 0.00 66 1053.9
20260831162737 83 239 7.0 12.0 0.00 0.00 0.00 66 1053.9
20260831162728 83 241 7.0 12.0 0.00 0.00 0.00 66 1054.0
20260831162437 83 222 8.0 13.0 0.00 0.00 0.00 67 1053.9
20260831162429 82 218 8.0 15.0 0.00 0.00 0.00 66 1053.8
20260831162107 83 237 8.0 15.0 0.00 0.00 0.00 66 1054.0
20260831162005 83 181 8.0 15.0 0.00 0.00 0.00 66 1053.9
20260831161908 83 212 8.0 15.0 0.00 0.00 0.00 66 1054.0
20260831161805 83 203 8.0 15.0 0.00 0.00 0.00 65 1054.1
20260831161716 83 172 7.0 15.0 0.00 0.00 0.00 65 1054.0
20260831161705 83 195 7.0 15.0 0.00 0.00 0.00 65 1053.9
20260831161657 83 203 7.0 15.0 0.00 0.00 0.00 66 1054.1
20260831161636 83 244 7.0 16.0 0.00 0.00 0.00 65 1054.2
20260831161628 83 205 7.0 16.0 0.00 0.00 0.00 66 1053.9
20260831161134 83 235 7.0 16.0 0.00 0.00 0.00 67 1053.9
20260831160903 83 169 6.0 16.0 0.00 0.00 0.00 67 1053.9
20260831160803 83 168 6.0 16.0 0.00 0.00 0.00 66 1053.9
20260831160717 83 216 7.0 16.0 0.00 0.00 0.00 66 1054.0
20260831160709 83 249 7.0 16.0 0.00 0.00 0.00 66 1054.0
20260831160657 83 244 6.0 16.0 0.00 0.00 0.00 66 1053.9
20260831160428 83 193 5.0 14.0 0.00 0.00 0.00 66 1053.9
20260831160415 83 252 5.0 12.0 0.00 0.00 0.00 66 1053.9
20260831160401 83 208 6.0 11.0 0.00 0.00 0.00 65 1054.0
20260831160133 83 201 6.0 14.0 0.00 0.00 0.00 66 1053.9
20260831160122 83 260 6.0 14.0 0.00 0.00 0.00 65 1054.0
20260831155757 83 164 6.0 14.0 0.00 0.00 0.00 65 1054.0
20260831155657 83 204 6.0 14.0 0.00 0.00 0.00 65 1054.0
20260831155604 83 189 6.0 14.0 0.00 0.00 0.00 65 1053.9
20260831155555 83 189 6.0 14.0 0.00 0.00 0.00 65 1053.9
20260831155544 83 125 7.0 14.0 0.00 0.00 0.00 65 1053.9
20260831155537 83 125 7.0 14.0 0.00 0.00 0.00 65 1053.9
20260831155523 83 256 7.0 14.0 0.00 0.00 0.00 64 1054.0
20260831155246 83 228 7.0 15.0 0.00 0.00 0.00 65 1054.0
20260831155237 83 219 7.0 15.0 0.00 0.00 0.00 65 1054.0
20260831155007 83 207 7.0 15.0 0.00 0.00 0.00 66 1054.0
20260831154957 83 197 7.0 15.0 0.00 0.00 0.00 66 1054.0
20260831154721 83 267 7.0 15.0 0.00 0.00 0.00 65 1054.0
20260831154409 83 214 7.0 15.0 0.00 0.00 0.00 65 1054.1
20260831154356 83 226 7.0 15.0 0.00 0.00 0.00 65 1054.1
20260831154257 83 241 7.0 15.0 0.00 0.00 0.00 65 1054.1
20260831154156 83 246 6.0 16.0 0.00 0.00 0.00 65 1054.1
20260831154053 83 223 6.0 16.0 0.00 0.00 0.00 65 1054.1
20260831153950 83 268 5.0 16.0 0.00 0.00 0.00 65 1054.1
20260831153905 83 146 6.0 16.0 0.00 0.00 0.00 65 1054.1
20260831153852 83 196 6.0 16.0 0.00 0.00 0.00 65 1054.1
20260831153820 83 228 6.0 16.0 0.00 0.00 0.00 65 1054.1
20260831153811 83 233 5.0 16.0 0.00 0.00 0.00 65 1054.2
20260831153445 83 190 5.0 16.0 0.00 0.00 0.00 65 1054.1
20260831153405 83 226 5.0 16.0 0.00 0.00 0.00 65 1054.1
20260831153344 83 226 5.0 16.0 0.00 0.00 0.00 65 1054.1
20260831153303 83 205 5.0 16.0 0.00 0.00 0.00 66 1054.1
20260831153249 83 199 5.0 17.0 0.00 0.00 0.00 66 1054.1
20260831153237 83 205 5.0 17.0 0.00 0.00 0.00 66 1054.1
20260831153227 83 258 5.0 17.0 0.00 0.00 0.00 66 1054.1
20260831152957 83 160 5.0 17.0 0.00 0.00 0.00 66 1054.2
20260831152637 83 159 6.0 17.0 0.00 0.00 0.00 66 1054.1
20260831152537 83 127 6.0 17.0 0.00 0.00 0.00 66 1054.1
20260831152528 83 209 6.0 17.0 0.00 0.00 0.00 66 1054.1
20260831152517 83 189 6.0 17.0 0.00 0.00 0.00 65 1054.1
20260831152509 83 178 6.0 17.0 0.00 0.00 0.00 65 1054.1
20260831152238 83 148 5.0 14.0 0.00 0.00 0.00 66 1054.1
20260831152226 83 225 5.0 14.0 0.00 0.00 0.00 66 1054.3
20260831152211 83 164 5.0 14.0 0.00 0.00 0.00 66 1054.1
20260831151942 83 100 5.0 14.0 0.00 0.00 0.00 67 1054.2
20260831151930 83 195 5.0 12.0 0.00 0.00 0.00 66 1054.1
20260831151657 83 237 5.0 12.0 0.00 0.00 0.00 66 1054.1
20260831151404 83 188 5.0 12.0 0.00 0.00 0.00 66 1054.1
20260831151333 83 196 5.0 12.0 0.00 0.00 0.00 66 1054.1
20260831151233 83 273 6.0 12.0 0.00 0.00 0.00 66 1054.1
20260831151132 83 125 6.0 12.0 0.00 0.00 0.00 66 1054.1
20260831151033 83 145 6.0 12.0 0.00 0.00 0.00 66 1054.1
20260831150932 83 107 6.0 12.0 0.00 0.00 0.00 66 1054.0
20260831150904 83 201 6.0 12.0 0.00 0.00 0.00 66 1054.0
20260831150833 83 191 6.0 12.0 0.00 0.00 0.00 66 1054.0
20260831150732 83 168 7.0 12.0 0.00 0.00 0.00 66 1054.0
20260831150632 83 229 7.0 12.0 0.00 0.00 0.00 66 1054.1
20260831150601 83 162 7.0 12.0 0.00 0.00 0.00 66 1054.1
20260831150552 83 168 7.0 12.0 0.00 0.00 0.00 66 1054.2
20260831150541 83 212 7.0 11.0 0.00 0.00 0.00 66 1054.1
20260831150528 83 189 7.0 11.0 0.00 0.00 0.00 66 1054.1
20260831150519 83 229 6.0 11.0 0.00 0.00 0.00 66 1054.1
20260831145932 83 217 6.0 11.0 0.00 0.00 0.00 65 1054.2
20260831145903 83 177 5.0 11.0 0.00 0.00 0.00 65 1054.1
20260831145833 83 241 5.0 11.0 0.00 0.00 0.00 65 1054.1
20260831145731 83 167 5.0 11.0 0.00 0.00 0.00 65 1054.2
20260831145630 83 231 5.0 16.0 0.00 0.00 0.00 65 1054.1
20260831145531 83 214 5.0 16.0 0.00 0.00 0.00 65 1054.0
20260831145430 84 173 4.0 16.0 0.00 0.00 0.00 65 1054.1
20260831145404 84 181 4.0 16.0 0.00 0.00 0.00 65 1054.1
20260831145331 84 160 4.0 16.0 0.00 0.00 0.00 65 1054.1
20260831145230 84 234 4.0 16.0 0.00 0.00 0.00 66 1054.1
20260831145131 84 134 4.0 16.0 0.00 0.00 0.00 66 1054.1
20260831145109 84 139 5.0 16.0 0.00 0.00 0.00 65 1054.1
20260831145101 84 218 4.0 16.0 0.00 0.00 0.00 65 1054.1
20260831145051 84 226 5.0 16.0 0.00 0.00 0.00 65 1054.1
20260831144729 84 188 4.0 15.0 0.00 0.00 0.00 66 1054.2
20260831144629 84 250 4.0 11.0 0.00 0.00 0.00 65 1054.1
20260831144529 84 171 4.0 11.0 0.00 0.00 0.00 65 1054.1
20260831144429 84 209 5.0 12.0 0.00 0.00 0.00 65 1054.1
20260831144404 84 205 5.0 12.0 0.00 0.00 0.00 65 1054.2
20260831144328 84 110 5.0 12.0 0.00 0.00 0.00 65 1054.2
20260831144229 84 218 5.0 12.0 0.00 0.00 0.00 64 1054.1
20260831144129 84 212 5.0 12.0 0.00 0.00 0.00 65 1054.1
20260831144109 84 201 5.0 12.0 0.00 0.00 0.00 64 1054.1
20260831144100 84 261 5.0 12.0 0.00 0.00 0.00 64 1054.1
20260831144050 84 252 5.0 12.0 0.00 0.00 0.00 64 1054.1
20260831143726 84 137 5.0 12.0 0.00 0.00 0.00 64 1054.1
20260831143650 84 198 5.0 12.0 0.00 0.00 0.00 64 1054.0
20260831143642 84 180 5.0 12.0 0.00 0.00 0.00 64 1054.1
20260831143405 84 183 6.0 15.0 0.00 0.00 0.00 64 1054.0
20260831143319 84 216 6.0 15.0 0.00 0.00 0.00 64 1054.0
20260831143219 84 210 6.0 15.0 0.00 0.00 0.00 64 1054.0
20260831143120 84 208 5.0 15.0 0.00 0.00 0.00 64 1054.0
20260831143020 84 158 5.0 15.0 0.00 0.00 0.00 64 1054.0
20260831142913 84 140 5.0 15.0 0.00 0.00 0.00 64 1054.1
20260831142904 84 183 5.0 15.0 0.00 0.00 0.00 64 1054.1
20260831142811 84 184 5.0 15.0 0.00 0.00 0.00 64 1054.0
20260831142711 84 195 6.0 15.0 0.00 0.00 0.00 64 1053.9
20260831142611 84 212 5.0 15.0 0.00 0.00 0.00 65 1054.0
20260831142510 84 170 5.0 15.0 0.00 0.00 0.00 65 1054.0
20260831142413 84 161 5.0 14.0 0.00 0.00 0.00 65 1053.9
20260831142404 84 163 5.0 14.0 0.00 0.00 0.00 65 1053.9
20260831142308 84 187 5.0 13.0 0.00 0.00 0.00 65 1054.0
20260831142209 84 167 6.0 13.0 0.00 0.00 0.00 65 1054.0
20260831142107 84 170 6.0 13.0 0.00 0.00 0.00 66 1054.0
20260831142006 84 210 6.0 13.0 0.00 0.00 0.00 65 1054.0
20260831141914 84 214 6.0 13.0 0.00 0.00 0.00 65 1054.1
20260831141904 84 160 6.0 13.0 0.00 0.00 0.00 65 1054.1
20260831141807 84 114 6.0 13.0 0.00 0.00 0.00 65 1054.0
20260831141743 84 118 5.0 13.0 0.00 0.00 0.00 65 1054.1
20260831141732 83 150 5.0 13.0 0.00 0.00 0.00 65 1054.1
20260831141407 83 191 5.0 13.0 0.00 0.00 0.00 64 1054.1
20260831141333 83 202 5.0 13.0 0.00 0.00 0.00 64 1054.1
20260831141326 83 202 5.0 12.0 0.00 0.00 0.00 65 1054.1
20260831141003 83 155 4.0 12.0 0.00 0.00 0.00 65 1054.0
20260831140908 84 120 5.0 12.0 0.00 0.00 0.00 65 1054.0
20260831140844 84 121 5.0 12.0 0.00 0.00 0.00 64 1054.0
20260831140822 84 208 5.0 14.0 0.00 0.00 0.00 65 1054.1
20260831140459 84 149 5.0 14.0 0.00 0.00 0.00 64 1054.1
20260831140412 84 121 6.0 15.0 0.00 0.00 0.00 63 1054.0
20260831140359 84 121 6.0 17.0 0.00 0.00 0.00 63 1054.0
20260831140256 84 141 6.0 17.0 0.00 0.00 0.00 62 1054.1
20260831140151 84 128 6.0 17.0 0.00 0.00 0.00 62 1054.2
20260831140050 85 139 6.0 17.0 0.00 0.00 0.00 62 1054.0
20260831135954 85 102 6.0 17.0 0.00 0.00 0.00 61 1054.1
20260831135903 85 132 6.0 17.0 0.00 0.00 0.00 61 1054.1
20260831135848 85 143 6.0 17.0 0.00 0.00 0.00 61 1054.1
20260831135748 85 204 6.0 17.0 0.00 0.00 0.00 61 1054.2
20260831135717 85 142 6.0 17.0 0.00 0.00 0.00 61 1054.1
20260831135706 85 208 6.0 17.0 0.00 0.00 0.00 60 1054.1
20260831135404 86 226 5.0 17.0 0.00 0.00 0.00 60 1054.1
20260831135346 86 231 5.0 13.0 0.00 0.00 0.00 60 1054.1
20260831135247 86 228 5.0 12.0 0.00 0.00 0.00 60 1054.0
20260831135147 86 248 5.0 12.0 0.00 0.00 0.00 60 1054.2
20260831135046 85 257 5.0 12.0 0.00 0.00 0.00 60 1054.1
20260831134945 85 211 4.0 12.0 0.00 0.00 0.00 60 1054.1
20260831134904 85 230 4.0 10.0 0.00 0.00 0.00 60 1054.1
20260831134844 85 214 4.0 10.0 0.00 0.00 0.00 60 1054.1
20260831134744 85 181 4.0 10.0 0.00 0.00 0.00 60 1054.1
20260831134645 85 177 4.0 10.0 0.00 0.00 0.00 60 1054.1
20260831134545 85 183 4.0 10.0 0.00 0.00 0.00 60 1054.1
20260831134442 85 141 5.0 10.0 0.00 0.00 0.00 60 1054.0
20260831134405 85 141 5.0 12.0 0.00 0.00 0.00 60 1054.0
20260831134343 85 157 5.0 16.0 0.00 0.00 0.00 60 1054.0
20260831134243 85 216 6.0 16.0 0.00 0.00 0.00 61 1054.1
20260831134142 85 206 6.0 16.0 0.00 0.00 0.00 61 1054.2
20260831134043 85 171 6.0 16.0 0.00 0.00 0.00 61 1054.1
20260831133939 85 202 6.0 16.0 0.00 0.00 0.00 60 1054.1
20260831133905 85 145 6.0 16.0 0.00 0.00 0.00 60 1054.2
20260831133846 85 239 6.0 16.0 0.00 0.00 0.00 60 1054.2
20260831133838 85 156 6.0 16.0 0.00 0.00 0.00 60 1054.2
20260831133829 85 181 6.0 16.0 0.00 0.00 0.00 61 1054.2
20260831133815 85 235 6.0 16.0 0.00 0.00 0.00 60 1054.2
20260831133542 85 239 6.0 16.0 0.00 0.00 0.00 61 1054.1
20260831133534 85 210 6.0 15.0 0.00 0.00 0.00 61 1054.1
20260831133520 85 181 6.0 15.0 0.00 0.00 0.00 61 1054.1
20260831133510 85 188 6.0 15.0 0.00 0.00 0.00 60 1054.1
20260831133242 85 206 7.0 15.0 0.00 0.00 0.00 59 1054.2
20260831133233 85 144 7.0 15.0 0.00 0.00 0.00 59 1054.1
20260831133223 85 129 7.0 15.0 0.00 0.00 0.00 59 1054.1
20260831133211 86 210 7.0 15.0 0.00 0.00 0.00 59 1054.2
20260831133202 86 213 7.0 15.0 0.00 0.00 0.00 58 1054.2
20260831132456 86 127 6.0 14.0 0.00 0.00 0.00 56 1054.2
20260831132156 87 89 5.0 14.0 0.00 0.00 0.00 56 1054.2
20260831132148 87 223 5.0 14.0 0.00 0.00 0.00 56 1054.1
20260831132136 87 204 5.0 14.0 0.00 0.00 0.00 56 1054.1
20260831132127 87 202 5.0 14.0 0.00 0.00 0.00 56 1054.0
20260831131854 87 232 5.0 14.0 0.00 0.00 0.00 56 1054.0
20260831131531 87 210 5.0 14.0 0.00 0.00 0.00 56 1054.0
20260831131430 87 359 5.0 12.0 0.00 0.00 0.00 55 1054.0
20260831131406 87 258 5.0 12.0 0.00 0.00 0.00 55 1054.0
20260831131327 87 214 5.0 12.0 0.00 0.00 0.00 55 1054.0
20260831131226 87 194 5.0 12.0 0.00 0.00 0.00 55 1054.0
20260831131124 87 141 5.0 12.0 0.00 0.00 0.00 55 1053.9
20260831131026 87 171 5.0 12.0 0.00 0.00 0.00 55 1054.0
20260831131010 87 250 5.0 12.0 0.00 0.00 0.00 55 1054.0
20260831130959 87 225 5.0 12.0 0.00 0.00 0.00 55 1054.0
20260831130952 87 241 5.0 12.0 0.00 0.00 0.00 55 1054.0
20260831130940 87 221 5.0 12.0 0.00 0.00 0.00 55 1054.1
20260831130929 87 205 5.0 12.0 0.00 0.00 0.00 55 1054.0
20260831130704 87 189 5.0 12.0 0.00 0.00 0.00 55 1054.1
20260831130654 87 206 5.0 12.0 0.00 0.00 0.00 55 1054.1
20260831130645 87 207 5.0 12.0 0.00 0.00 0.00 55 1054.1
20260831130415 87 241 5.0 11.0 0.00 0.00 0.00 54 1054.1
20260831130139 87 204 4.0 12.0 0.00 0.00 0.00 55 1054.0
20260831125911 87 179 4.0 12.0 0.00 0.00 0.00 54 1054.1
20260831125901 87 216 4.0 12.0 0.00 0.00 0.00 54 1054.1
20260831125852 87 235 4.0 12.0 0.00 0.00 0.00 54 1054.0
20260831125844 87 197 4.0 12.0 0.00 0.00 0.00 55 1054.2
20260831125312 87 228 4.0 12.0 0.00 0.00 0.00 55 1054.1
20260831125213 87 218 4.0 12.0 0.00 0.00 0.00 55 1054.1
20260831125112 87 156 4.0 11.0 0.00 0.00 0.00 56 1054.1
20260831125009 87 204 4.0 11.0 0.00 0.00 0.00 55 1054.1
20260831124913 87 195 4.0 12.0 0.00 0.00 0.00 56 1054.1
20260831124904 87 178 4.0 12.0 0.00 0.00 0.00 56 1054.1
20260831124809 87 141 4.0 12.0 0.00 0.00 0.00 56 1054.1
20260831124708 87 306 4.0 12.0 0.00 0.00 0.00 55 1054.1
20260831124606 87 87 4.0 12.0 0.00 0.00 0.00 55 1054.2
20260831124520 87 176 4.0 12.0 0.00 0.00 0.00 55 1054.1
20260831124509 87 176 4.0 12.0 0.00 0.00 0.00 54 1054.1
20260831124500 87 173 4.0 12.0 0.00 0.00 0.00 54 1054.1
20260831124451 87 229 4.0 12.0 0.00 0.00 0.00 54 1054.1
20260831124442 87 177 4.0 12.0 0.00 0.00 0.00 55 1054.2
20260831124433 87 178 3.0 12.0 0.00 0.00 0.00 55 1054.1
20260831124421 87 173 3.0 12.0 0.00 0.00 0.00 56 1054.1
20260831124151 87 220 4.0 9.0 0.00 0.00 0.00 55 1054.1
20260831123918 87 149 5.0 13.0 0.00 0.00 0.00 55 1054.1
20260831123651 87 223 6.0 13.0 0.00 0.00 0.00 55 1054.1
20260831123635 87 211 5.0 13.0 0.00 0.00 0.00 55 1054.2
20260831123624 87 189 6.0 13.0 0.00 0.00 0.00 55 1054.2
20260831123133 87 187 6.0 13.0 0.00 0.00 0.00 55 1054.2
20260831123123 87 225 6.0 13.0 0.00 0.00 0.00 55 1054.3
20260831123105 87 222 6.0 13.0 0.00 0.00 0.00 55 1054.3
20260831122841 87 179 6.0 13.0 0.00 0.00 0.00 55 1054.3
20260831122828 87 204 6.0 15.0 0.00 0.00 0.00 55 1054.1
20260831122558 87 268 6.0 15.0 0.00 0.00 0.00 54 1054.2
20260831122546 87 268 6.0 15.0 0.00 0.00 0.00 54 1054.2
20260831122537 87 246 6.0 15.0 0.00 0.00 0.00 55 1054.2
20260831121958 87 201 6.0 15.0 0.00 0.00 0.00 56 1054.2
20260831121911 87 151 5.0 15.0 0.00 0.00 0.00 55 1054.3
20260831121900 87 159 5.0 15.0 0.00 0.00 0.00 56 1054.3
20260831121758 87 220 6.0 15.0 0.00 0.00 0.00 56 1054.2
20260831121656 87 231 5.0 15.0 0.00 0.00 0.00 57 1054.2
20260831121641 87 236 5.0 15.0 0.00 0.00 0.00 56 1054.2
20260831121633 87 184 4.0 15.0 0.00 0.00 0.00 56 1054.2
20260831121622 87 237 4.0 15.0 0.00 0.00 0.00 55 1054.3
20260831121329 87 202 3.0 12.0 0.00 0.00 0.00 57 1054.3
20260831121320 87 214 3.0 11.0 0.00 0.00 0.00 56 1054.3
20260831120955 87 190 3.0 11.0 0.00 0.00 0.00 56 1054.3
20260831120930 86 256 3.0 11.0 0.00 0.00 0.00 56 1054.3
20260831120923 86 258 3.0 11.0 0.00 0.00 0.00 56 1054.3
20260831120915 86 260 4.0 11.0 0.00 0.00 0.00 56 1054.3
20260831120636 86 233 5.0 14.0 0.00 0.00 0.00 56 1054.3
20260831120624 86 233 5.0 14.0 0.00 0.00 0.00 56 1054.3
20260831120353 86 77 5.0 14.0 0.00 0.00 0.00 57 1054.3
20260831120252 86 183 5.0 14.0 0.00 0.00 0.00 57 1054.3
20260831120154 86 206 5.0 14.0 0.00 0.00 0.00 56 1054.2
20260831120052 86 199 5.0 14.0 0.00 0.00 0.00 56 1054.3
20260831115952 86 248 5.0 14.0 0.00 0.00 0.00 56 1054.3
20260831115908 86 266 5.0 14.0 0.00 0.00 0.00 56 1054.3
20260831115852 86 262 5.0 14.0 0.00 0.00 0.00 56 1054.3
20260831115750 86 231 4.0 14.0 0.00 0.00 0.00 56 1054.4
20260831115650 86 203 4.0 12.0 0.00 0.00 0.00 56 1054.4
20260831115550 86 229 4.0 12.0 0.00 0.00 0.00 56 1054.4
20260831115450 86 213 4.0 11.0 0.00 0.00 0.00 56 1054.3
20260831115404 86 291 4.0 11.0 0.00 0.00 0.00 56 1054.4
20260831115348 86 274 4.0 11.0 0.00 0.00 0.00 56 1054.4
20260831115324 86 154 5.0 11.0 0.00 0.00 0.00 56 1054.4
20260831115307 86 154 5.0 11.0 0.00 0.00 0.00 57 1054.5
20260831115255 86 191 6.0 11.0 0.00 0.00 0.00 57 1054.4
20260831115245 86 162 6.0 11.0 0.00 0.00 0.00 57 1054.5
20260831115235 86 158 6.0 11.0 0.00 0.00 0.00 57 1054.5
20260831115008 86 256 6.0 11.0 0.00 0.00 0.00 57 1054.5
20260831114959 86 201 6.0 11.0 0.00 0.00 0.00 57 1054.4
20260831114947 86 276 5.0 11.0 0.00 0.00 0.00 57 1054.4
20260831114938 85 203 5.0 11.0 0.00 0.00 0.00 57 1054.5
20260831114134 85 81 3.0 10.0 0.00 0.00 0.00 56 1054.4
20260831114118 85 91 3.0 10.0 0.00 0.00 0.00 57 1054.5
20260831114110 85 112 3.0 9.0 0.00 0.00 0.00 57 1054.4
20260831114101 85 97 3.0 9.0 0.00 0.00 0.00 57 1054.4
20260831113735 85 114 4.0 9.0 0.00 0.00 0.00 56 1054.4
20260831113634 85 151 4.0 9.0 0.00 0.00 0.00 56 1054.4
20260831113532 85 81 4.0 9.0 0.00 0.00 0.00 56 1054.4
20260831113432 85 62 4.0 9.0 0.00 0.00 0.00 54 1054.4
20260831113404 85 69 4.0 9.0 0.00 0.00 0.00 54 1054.4
20260831113331 85 92 4.0 9.0 0.00 0.00 0.00 54 1054.4
20260831113232 85 91 4.0 9.0 0.00 0.00 0.00 54 1054.5
20260831113210 85 91 4.0 9.0 0.00 0.00 0.00 54 1054.5
20260831113159 85 89 5.0 10.0 0.00 0.00 0.00 54 1054.5